GEFSNGP_500_meanwind_096.txt.gz
Wind_Speed
33 34 34 32 31 31 32 31 32 30 30 29 32 35 35 35 35 36 37 38 39 41 42 43 44 45 46 46 47 47 47 48 48 50 51 52 54 55 57 59 61 63 65 66
35 35 35 35 33 33 32 32 32 33 32 30 34 36 37 38 38 39 40 40 41 42 43 44 45 46 47 47 48 48 49 49 50 52 53 54 56 57 59 61 63 65 67 69
36 36 37 38 34 34 34 33 34 35 33 34 36 36 37 39 40 41 42 42 43 44 45 46 46 47 48 48 49 49 50 51 52 54 55 56 58 60 61 63 65 67 70 71
38 38 41 35 34 34 35 34 35 36 35 36 37 38 39 40 41 42 43 44 44 45 45 46 47 47 48 49 49 50 51 53 54 55 56 58 60 61 63 66 68 70 72 73
40 41 39 36 35 35 36 36 35 36 37 38 39 40 40 41 43 44 44 44 45 45 46 46 47 47 48 49 50 52 53 54 55 56 58 59 61 64 66 68 70 72 74 76
41 42 41 37 37 37 38 38 35 36 38 40 40 41 41 42 43 43 44 44 45 45 46 46 47 48 49 50 51 52 53 55 56 58 59 62 64 66 68 70 72 74 76 78
41 43 42 40 39 38 39 38 37 38 39 39 40 40 41 42 42 43 43 44 45 45 46 46 47 48 49 51 52 53 54 56 57 59 61 64 66 68 70 72 74 76 77 79
42 44 42 39 40 40 39 39 40 40 40 40 40 40 41 41 42 43 43 44 45 45 46 47 48 49 50 52 53 54 55 57 58 61 64 66 68 70 72 74 76 78 79 79
40 41 40 40 39 39 39 40 40 41 41 40 40 40 41 42 42 43 44 45 45 46 47 48 49 50 51 52 53 54 56 58 61 63 65 68 70 72 74 76 78 79 79 78
38 39 39 40 40 40 40 41 41 41 41 41 41 42 42 43 44 45 46 46 46 47 48 49 50 51 52 53 54 56 58 60 62 64 67 70 72 74 76 78 79 79 79 77
38 38 39 40 40 40 41 41 41 41 41 41 42 43 44 45 45 46 46 46 47 48 49 49 50 50 52 53 55 57 59 62 64 67 70 72 73 76 78 79 79 79 77 75
38 38 40 40 40 41 42 42 42 43 43 44 44 45 45 46 46 46 46 47 48 48 49 49 49 51 53 55 57 59 61 64 67 69 72 74 76 77 77 78 76 75 73 71
40 39 40 40 40 41 42 42 43 44 44 45 45 46 46 46 46 46 47 47 47 47 48 49 50 52 54 56 58 61 64 67 69 72 74 77 78 79 77 74 72 70 68 65
39 40 40 41 41 42 42 43 44 44 45 45 46 46 45 45 45 46 46 46 46 47 48 49 51 53 55 58 60 63 67 70 73 75 77 78 78 78 76 74 70 65 63 60
38 39 41 41 42 42 43 43 43 43 44 44 44 44 44 43 43 44 44 45 46 47 49 51 53 55 57 60 64 67 70 73 75 77 78 78 77 75 73 71 68 64 59 55
38 39 40 40 40 41 41 41 42 42 42 42 42 41 41 41 41 42 44 45 47 48 50 52 54 57 61 64 67 70 73 76 77 78 78 76 75 73 70 67 64 60 56 51
38 38 39 39 39 39 39 39 39 39 39 39 39 39 39 40 42 43 45 46 48 49 52 55 58 61 64 68 71 74 76 77 78 77 76 74 72 70 67 65 61 56 51 47
37 37 37 37 37 37 37 37 37 37 37 37 38 38 40 41 42 44 45 47 49 51 55 59 62 65 68 72 75 77 78 77 77 75 74 72 69 67 64 61 57 52 47 42
35 35 35 35 35 35 35 36 35 36 36 37 38 39 41 42 43 45 47 49 52 55 58 62 65 69 72 75 77 78 77 76 74 73 71 69 66 63 60 56 52 47 43 39
33 33 33 34 34 34 34 35 35 36 37 38 39 40 41 43 46 48 50 53 56 60 63 66 69 73 75 77 77 77 75 73 72 70 68 65 62 58 55 51 47 43 39 36
32 33 33 33 33 33 34 35 35 36 38 39 40 42 44 47 49 52 54 57 60 64 67 70 73 75 77 77 75 74 72 71 69 66 63 60 56 53 49 46 42 38 35 33
32 32 33 33 33 34 35 36 37 38 39 41 43 46 48 50 53 56 59 62 65 68 71 73 75 76 76 75 73 71 69 67 64 61 58 54 52 49 45 41 38 35 33 31
32 33 33 34 34 35 36 37 39 40 42 44 47 50 52 55 58 61 63 66 69 72 74 75 76 75 74 72 69 67 64 61 58 55 53 51 48 44 41 37 34 32 31 29
33 33 34 34 35 36 38 40 42 44 46 49 52 55 58 60 63 65 68 70 72 74 74 74 73 72 70 67 64 61 58 56 54 51 49 47 44 40 37 34 32 30 28 27
33 34 35 36 37 39 41 43 45 48 50 53 56 59 62 65 67 68 70 72 73 73 72 70 68 66 64 61 58 56 55 53 51 48 46 43 40 36 34 31 29 27 26 25
35 36 37 39 41 43 45 47 50 52 55 57 60 63 66 68 70 71 71 72 71 70 68 65 63 60 58 56 55 53 51 49 47 44 42 39 36 33 30 28 26 25 24 24
37 39 41 43 45 47 50 52 54 57 60 62 64 66 68 69 70 70 70 69 67 65 62 60 58 56 54 53 52 50 47 45 42 40 37 35 32 29 27 25 24 23 23 24

GEFSNGP_500_meanwind_102.txt.gz
Wind_Speed
33 33 33 33 33 34 36 35 34 31 30 28 29 32 33 32 31 31 31 31 32 33 34 36 37 39 40 41 43 44 46 47 48 49 50 50 51 52 53 54 54 55 56 57
34 34 35 35 34 34 34 34 33 32 30 27 31 33 33 33 33 33 33 34 34 35 36 37 38 40 41 43 44 46 47 48 49 50 51 52 53 53 54 54 55 56 57 58
35 34 36 37 34 34 34 33 33 34 30 30 33 34 34 34 35 35 35 37 37 38 39 40 40 41 43 44 45 47 48 49 50 51 52 52 53 54 54 55 56 57 58 59
37 36 40 34 32 33 34 33 33 33 32 32 34 35 36 35 36 37 38 40 41 41 41 42 42 43 44 46 46 48 49 49 51 51 52 53 53 54 55 56 57 58 59 61
39 38 37 35 32 31 33 33 33 34 33 34 35 36 36 36 38 39 40 41 42 42 43 43 44 45 46 47 48 49 49 50 51 52 52 53 54 55 56 57 58 59 61 63
40 40 38 33 32 33 35 35 32 34 35 36 37 37 36 38 39 40 41 41 42 43 44 44 45 45 46 47 48 48 49 50 51 52 53 54 54 55 56 57 59 60 62 65
40 39 38 35 33 33 36 33 32 35 36 36 37 38 38 39 40 40 41 41 42 42 43 43 44 45 46 46 47 48 49 50 51 52 53 54 55 56 57 59 60 62 65 67
39 40 37 33 34 34 34 34 35 35 36 37 38 38 38 39 40 40 40 41 41 42 42 43 44 45 46 47 48 49 50 51 51 52 53 54 55 57 58 61 62 65 67 69
38 37 34 34 34 35 35 35 35 36 36 37 37 38 38 39 39 39 40 40 41 41 42 43 45 46 47 48 48 49 49 50 51 52 53 55 56 58 60 63 65 68 70 72
38 37 36 35 35 35 36 36 36 36 36 36 36 37 37 38 38 39 40 40 41 42 43 44 45 46 46 47 48 49 49 50 51 53 54 55 57 60 62 65 68 71 73 75
37 36 36 36 35 36 36 37 37 37 37 37 37 37 37 38 39 39 40 41 43 44 44 44 45 46 47 48 48 49 50 51 52 53 54 56 59 62 65 68 72 75 77 79
36 35 37 36 37 38 38 37 37 37 37 37 37 37 38 38 39 41 41 42 43 44 44 45 46 46 47 48 48 49 50 51 52 54 56 59 61 64 67 71 74 77 80 82
37 36 37 36 37 37 38 38 38 37 37 37 38 39 40 40 41 42 42 43 43 44 44 45 45 46 47 48 48 49 50 52 54 56 59 62 65 68 71 73 76 78 80 81
36 36 36 36 36 36 37 37 37 38 38 39 39 40 40 41 42 42 43 43 43 43 44 44 45 46 47 48 49 50 52 54 57 59 62 66 69 73 76 77 77 77 78 79
36 36 36 36 36 36 36 37 37 38 38 38 39 39 40 41 42 42 42 42 43 43 44 44 45 46 47 48 50 52 54 57 60 63 66 70 74 76 78 79 79 79 77 76
35 35 35 36 36 36 37 37 38 38 38 38 39 40 40 41 41 41 41 42 42 43 43 44 45 47 48 50 52 55 57 60 64 67 71 74 77 78 79 79 79 78 76 73
35 34 34 34 35 35 36 37 37 38 38 39 39 40 40 40 40 41 41 41 42 42 44 45 47 48 50 53 55 58 61 64 68 72 75 77 78 79 79 79 78 76 73 69
34 34 34 34 35 35 35 36 36 37 38 38 38 38 39 39 39 40 40 41 42 44 45 47 49 51 53 56 59 62 65 69 72 75 77 78 79 79 79 78 75 72 68 64
34 34 34 34 34 35 35 36 36 36 36 37 37 38 38 39 39 40 41 42 43 45 47 49 51 54 56 60 63 66 70 72 75 77 78 78 78 77 76 73 70 67 64 61
33 33 34 34 34 35 35 35 35 36 36 37 37 37 38 39 40 41 42 43 45 48 50 52 55 58 61 64 67 70 73 75 77 78 78 77 76 74 71 68 65 63 60 57
33 34 34 34 35 35 35 35 35 36 36 36 37 37 38 40 41 42 43 45 48 50 53 56 59 62 65 68 71 73 75 77 78 78 76 74 72 69 66 64 61 59 56 52
34 34 34 35 35 35 35 35 35 36 37 37 38 39 40 41 42 44 46 48 51 54 57 60 63 66 69 72 74 75 76 77 76 75 72 70 67 65 62 59 57 53 50 47
34 34 34 34 34 34 35 35 36 36 37 38 39 40 41 43 45 47 49 52 55 58 61 64 67 70 73 74 75 75 76 75 73 70 67 64 63 61 58 54 51 48 46 44
32 33 33 34 34 35 35 35 36 37 38 39 40 42 43 45 48 51 53 56 59 62 65 68 71 73 74 74 74 74 73 71 67 64 62 60 59 56 53 50 47 44 42 39
32 32 32 33 33 34 35 36 37 38 39 41 42 45 47 49 52 54 57 60 64 67 69 70 72 72 73 73 73 71 68 64 62 60 59 57 55 52 48 45 42 39 37 34
31 31 32 32 33 34 36 37 38 40 41 43 45 48 51 53 56 59 62 65 67 69 70 70 71 71 71 70 68 65 62 60 58 57 55 54 51 47 43 40 37 35 32 29
30 31 32 33 34 35 37 38 39 41 43 46 49 52 55 58 61 63 66 67 68 68 68 69 69 68 67 65 62 59 57 56 54 52 51 48 45 41 37 35 33 31 28 26

GEFSNGP_500_meanwind_108.txt.gz
Wind_Speed
39 38 38 37 37 38 40 40 40 37 35 30 29 31 32 33 34 34 33 34 34 34 34 35 36 36 37 38 39 40 41 42 44 45 46 47 48 48 49 50 51 53 54 54
40 39 39 39 39 39 40 39 39 37 34 29 31 33 34 35 35 35 34 34 34 35 35 36 36 37 38 39 40 41 42 44 45 46 47 48 49 49 50 52 53 54 54 55
41 39 40 41 37 38 38 37 37 37 33 31 32 33 34 35 36 35 35 35 35 35 35 36 37 38 39 40 41 42 44 45 46 47 48 49 49 50 52 53 53 53 54 55
42 42 44 38 35 35 36 35 35 35 33 32 31 32 34 35 36 36 36 36 36 36 37 38 39 40 41 41 42 43 44 45 46 47 48 49 50 51 52 52 53 54 55 55
44 44 42 39 35 33 34 33 32 33 32 32 33 34 33 34 35 36 36 36 37 38 39 39 40 40 42 43 43 44 45 45 46 47 48 49 50 51 52 53 54 55 55 56
45 45 43 38 35 34 34 33 30 31 32 33 35 35 32 34 35 36 36 37 38 39 40 40 41 42 43 43 43 44 45 46 47 48 48 49 50 52 53 53 54 55 56 57
45 44 42 38 35 34 35 31 30 31 32 34 35 35 34 34 35 36 37 38 39 40 40 41 42 42 42 43 43 44 45 46 46 47 49 50 51 52 53 54 55 56 56 57
45 45 40 36 35 33 31 31 32 33 33 33 34 35 35 35 36 36 38 39 39 40 41 41 41 42 42 42 43 44 45 45 46 48 49 50 51 52 53 55 56 56 57 58
44 41 38 36 35 34 33 33 34 34 34 34 35 36 36 36 37 37 38 39 39 40 40 40 41 41 41 42 43 44 45 46 47 48 49 50 51 53 54 56 57 57 58 59
46 43 40 38 37 36 35 34 34 34 35 35 36 36 36 37 37 38 38 38 39 39 39 40 40 41 42 42 43 44 45 46 47 48 49 51 52 54 55 56 57 58 60 62
45 42 41 39 37 36 36 36 35 35 35 36 36 36 36 36 37 37 38 38 39 39 39 40 41 42 42 43 44 45 45 46 47 49 50 52 53 54 55 57 59 61 63 66
42 39 39 38 37 37 38 37 37 36 36 36 35 35 35 36 36 37 37 38 38 39 39 40 41 42 43 44 44 45 45 46 48 50 51 53 53 55 56 59 61 64 67 70
40 40 40 39 38 38 38 37 37 36 36 35 35 35 36 36 36 36 36 37 37 38 39 40 41 42 43 43 44 45 46 48 49 51 52 53 55 57 59 61 64 67 70 73
40 40 40 39 38 37 37 36 36 36 36 35 35 35 35 36 36 36 36 37 38 39 39 40 41 42 43 44 45 46 48 49 51 52 54 56 58 60 63 65 67 69 71 74
40 40 39 39 38 37 36 36 35 35 35 35 35 35 35 35 35 36 37 37 38 39 40 41 42 43 44 45 46 48 49 51 53 54 56 59 61 64 66 69 70 71 72 73
40 40 39 39 38 37 36 36 35 35 35 35 35 35 35 35 36 37 38 38 39 40 41 42 43 44 45 47 48 49 51 53 55 57 59 62 64 67 69 71 72 73 73 74
38 38 38 38 38 37 37 36 36 35 35 35 35 35 35 36 36 37 38 39 40 41 42 43 44 46 47 48 50 51 53 55 57 60 62 65 67 69 70 71 72 73 74 74
38 37 38 37 37 37 36 36 35 35 35 35 35 35 36 37 37 38 39 39 41 42 43 45 46 47 48 50 52 54 56 58 60 63 65 67 69 69 71 73 74 74 73 72
37 37 37 36 36 35 34 34 34 34 35 35 35 36 37 37 37 38 39 40 42 43 44 46 47 48 50 52 54 56 59 61 63 65 67 68 69 71 73 74 74 73 71 70
36 35 35 34 34 34 33 34 34 34 35 35 36 36 37 37 38 40 41 42 43 45 46 47 49 50 52 55 57 59 62 64 66 67 68 70 71 73 73 73 72 70 68 67
34 34 34 34 33 33 33 33 33 33 34 35 36 37 38 39 40 41 42 43 45 46 47 49 51 53 55 57 60 62 64 66 67 68 70 71 72 72 72 70 68 66 65 63
33 33 33 33 33 33 33 33 33 34 35 36 37 38 39 40 41 43 44 45 46 48 49 51 53 56 58 60 62 64 65 67 68 70 71 72 71 70 68 66 65 63 62 61
32 31 31 32 32 32 33 34 34 35 36 38 39 40 41 42 43 44 45 47 48 50 51 54 56 59 61 63 64 65 67 68 69 70 70 70 68 67 64 63 62 61 59 57
32 32 32 32 32 33 33 34 35 36 37 38 39 40 41 42 44 45 47 48 50 52 54 56 59 61 63 64 65 66 68 69 69 68 68 66 64 62 61 60 59 57 55 53
32 32 33 33 33 33 34 35 36 37 38 39 40 41 42 43 45 46 48 50 52 54 57 59 61 63 64 65 66 67 67 67 67 66 65 63 61 60 59 58 56 54 51 49
30 31 31 32 33 33 34 35 36 37 38 39 40 41 43 44 46 48 50 52 55 57 59 61 62 63 64 64 65 65 65 65 64 63 61 59 58 58 57 55 53 50 47 44
29 29 30 31 32 33 34 35 35 36 38 39 41 42 44 46 48 50 53 55 57 59 61 62 62 62 62 63 63 63 63 61 60 59 58 57 56 54 53 50 47 44 41 39

GEFSNGP_500_meanwind_114.txt.gz
Wind_Speed
48 48 47 46 44 44 45 44 43 39 38 34 33 33 33 33 32 32 32 33 32 32 32 33 33 33 33 33 34 33 34 34 35 36 37 38 39 41 42 43 45 46 46 47
49 48 48 47 46 44 43 42 41 40 36 32 33 34 34 33 32 31 31 32 33 33 34 34 33 33 33 33 33 34 35 35 36 37 38 39 41 42 43 44 45 46 46 47
48 47 48 49 45 43 42 40 39 38 32 32 33 33 33 33 32 31 31 32 32 33 33 33 33 33 33 34 34 35 35 36 37 38 39 41 42 43 44 45 46 46 47 47
48 48 50 45 41 41 41 39 38 37 34 33 32 32 33 33 32 32 31 32 32 32 33 32 33 33 34 35 35 36 36 37 38 39 41 43 43 44 45 45 46 46 47 48
49 50 49 45 41 38 38 38 36 35 33 32 33 33 32 31 31 31 31 31 31 32 32 32 33 34 35 36 36 37 38 38 39 41 43 43 44 44 45 45 46 47 48 49
48 49 49 43 39 37 37 37 34 33 32 32 33 33 29 30 31 31 31 32 32 32 31 32 33 34 35 36 37 37 38 40 41 42 43 43 43 44 44 45 46 47 48 49
48 47 46 44 40 38 37 33 31 32 32 32 32 30 29 30 31 31 31 31 31 32 32 33 34 34 35 35 36 37 39 40 41 42 43 43 43 43 45 46 47 48 48 50
48 49 46 43 41 38 34 33 31 30 31 31 31 31 30 30 30 30 30 31 31 31 32 32 33 34 34 35 36 38 39 40 41 41 42 42 43 44 45 46 47 48 49 51
47 45 42 40 38 36 35 33 32 31 31 31 31 31 31 30 30 30 29 30 30 31 31 32 33 33 34 35 36 37 38 39 40 41 41 42 43 44 45 46 47 49 50 52
45 44 42 40 38 37 35 33 32 31 30 30 31 30 30 30 30 30 30 30 30 31 32 32 33 33 34 35 36 37 37 38 39 40 41 42 43 44 45 47 49 50 52 54
43 41 40 40 38 36 35 34 32 31 30 30 30 30 30 30 30 30 30 30 31 31 32 33 33 34 35 35 36 36 37 38 39 40 41 42 43 45 47 48 50 52 54 56
41 39 39 38 37 37 36 34 33 32 31 30 30 30 30 30 30 30 31 31 31 32 32 33 33 34 34 35 36 37 38 39 39 40 41 43 44 46 47 49 51 54 56 59
41 40 40 38 38 37 35 34 33 32 31 30 30 30 30 30 30 30 31 31 31 32 32 33 33 34 34 35 36 37 38 39 40 41 43 44 46 47 49 51 53 56 58 61
40 41 41 39 37 36 36 35 34 33 32 31 30 30 30 30 30 30 31 31 32 32 33 33 34 34 35 36 37 38 39 40 41 43 44 45 47 49 52 54 56 58 61 63
39 40 40 40 39 38 37 36 35 34 33 32 31 31 30 30 31 31 32 32 32 33 33 34 34 35 36 36 37 38 40 41 42 44 45 48 50 52 55 57 59 61 62 63
39 38 38 38 38 37 36 35 35 34 33 32 32 32 32 32 32 32 32 32 32 33 34 34 35 36 37 37 38 39 41 42 44 46 48 50 53 55 58 60 61 62 63 64
38 36 35 35 35 34 34 33 33 33 33 32 32 32 32 32 32 31 32 32 33 34 35 36 37 37 38 39 40 41 43 44 46 49 51 53 56 58 60 61 62 63 64 66
37 36 35 35 34 34 34 34 33 33 33 32 32 32 32 32 32 32 32 33 34 35 36 37 37 38 39 40 41 43 45 47 49 52 54 56 58 60 61 61 62 64 66 66
35 35 34 33 33 33 34 33 33 33 32 32 32 32 32 33 33 33 34 34 35 36 36 37 38 39 40 41 43 45 47 49 52 54 57 59 60 60 61 62 64 66 66 67
32 32 32 33 33 32 32 33 33 32 32 32 32 32 33 33 33 34 34 35 36 36 37 38 39 40 41 43 45 47 50 52 54 56 58 60 60 61 62 64 65 67 67 67
32 31 31 31 32 31 30 30 31 31 31 32 32 32 33 33 33 34 34 35 36 37 37 39 40 41 43 45 48 50 53 55 57 58 59 60 61 62 64 65 66 67 66 65
31 31 30 30 30 30 30 30 30 30 31 31 32 32 33 33 34 34 35 36 37 37 38 39 41 43 45 48 50 53 55 56 58 59 60 61 62 63 64 65 65 64 63 61
30 30 29 28 28 29 29 30 30 30 31 31 32 33 33 34 34 35 36 37 38 38 40 41 43 46 48 51 53 55 56 58 59 61 61 62 63 64 64 64 62 61 59 58
28 28 28 28 29 29 29 30 30 30 31 31 32 33 33 34 35 35 36 37 38 40 42 44 47 49 52 53 55 56 58 59 61 61 61 62 63 63 62 61 59 58 56 55
27 27 27 28 28 29 29 30 30 30 31 32 32 33 33 34 34 35 37 38 40 42 44 47 49 52 53 55 56 58 60 61 61 60 61 61 61 60 59 58 57 54 53 51
25 25 26 26 27 28 28 29 29 30 31 31 32 33 33 34 36 37 38 40 42 44 47 49 51 53 54 56 58 59 60 60 60 60 60 60 59 57 56 54 52 51 50 49
23 23 24 25 26 27 27 28 29 30 30 31 32 33 34 35 37 38 40 42 44 47 49 51 52 54 56 57 58 59 58 58 59 59 58 57 55 54 52 51 50 49 48 46

GEFSNGP_500_meanwind_120.txt.gz
Wind_Speed
52 52 51 50 49 50 51 49 48 44 43 40 40 40 40 38 36 35 35 34 33 33 33 33 34 34 34 34 34 34 35 35 35 36 36 37 37 37 38 38 39 39 40 41
51 51 53 53 50 48 48 48 47 45 43 39 40 41 41 39 36 34 34 34 33 33 33 32 33 33 33 33 33 34 34 34 35 36 36 36 37 37 38 38 39 41 42 43
54 52 53 55 50 48 47 46 46 45 39 38 40 41 40 39 37 35 34 34 33 33 32 32 32 32 32 32 33 33 33 34 34 35 35 36 36 37 38 39 40 41 42 43
54 54 56 53 48 47 47 45 43 42 40 40 39 39 39 39 38 36 34 33 33 33 33 32 32 32 32 33 33 33 33 34 34 34 35 36 36 37 38 39 40 42 43 44
54 55 55 51 48 46 45 44 41 41 40 40 39 40 39 37 37 36 35 33 33 33 33 32 32 33 33 33 33 33 33 33 34 34 35 36 36 38 39 40 41 42 44 45
53 53 53 49 45 44 44 44 39 39 39 39 40 41 35 34 35 34 34 33 33 32 32 32 32 33 33 33 33 33 33 34 34 35 36 37 38 39 39 41 42 43 44 45
52 52 50 45 45 44 44 40 36 38 38 40 40 38 35 35 34 33 33 33 33 32 31 31 32 32 32 32 33 33 33 34 34 35 36 37 38 39 40 41 42 43 44 46
51 52 48 42 44 44 41 38 37 37 37 38 38 37 37 36 34 33 33 32 32 31 31 31 31 32 32 32 32 33 34 34 35 35 37 38 39 39 40 41 42 43 45 46
46 45 43 43 44 42 40 39 38 37 36 36 36 36 36 35 34 33 32 31 31 30 30 31 31 31 32 32 33 33 34 34 35 36 37 38 38 39 40 41 43 44 45 46
45 44 43 42 43 40 39 38 37 36 35 35 34 34 34 34 33 32 31 30 30 30 30 31 31 32 32 32 33 33 34 35 35 36 37 37 38 40 41 42 43 44 45 47
44 42 43 43 41 39 38 38 36 35 33 33 34 34 33 32 32 32 32 31 31 31 31 31 32 32 32 33 33 34 35 35 36 36 37 38 39 40 41 42 44 45 46 48
43 41 42 42 41 40 40 39 37 35 34 33 33 34 34 33 32 32 32 31 31 31 31 31 32 32 33 33 34 34 35 36 36 37 38 39 40 41 42 43 44 46 47 49
42 41 42 42 42 41 41 39 38 37 35 33 33 33 33 33 32 31 31 31 32 31 31 31 31 32 33 34 34 35 35 36 37 38 39 40 40 41 42 44 45 47 49 51
41 42 42 41 39 39 39 39 38 37 35 33 33 33 33 33 32 31 31 31 31 31 31 31 32 33 33 34 34 35 36 37 38 39 39 40 41 42 44 45 47 48 50 52
39 40 39 39 39 38 38 38 37 36 35 34 34 34 34 34 33 32 31 31 31 31 31 31 32 33 34 34 35 36 37 37 38 39 40 41 42 43 45 46 48 50 51 53
37 37 38 38 38 38 38 37 37 36 35 35 35 34 34 34 34 33 32 32 32 32 32 32 33 34 34 35 36 37 37 38 39 39 40 41 43 44 46 48 50 51 53 54
36 37 37 37 36 35 36 36 36 36 35 35 34 34 35 34 33 33 33 32 32 32 33 33 34 34 35 36 36 37 38 38 39 40 42 43 44 46 48 49 51 52 54 55
34 35 35 35 34 33 33 34 35 35 34 34 34 35 34 34 33 32 32 32 32 32 33 33 34 34 35 36 37 37 38 39 41 42 43 44 46 47 49 50 52 53 55 56
32 33 34 34 33 32 31 31 32 32 33 33 33 33 32 31 31 31 32 32 32 32 32 33 34 35 35 36 37 38 39 40 42 43 44 45 46 48 50 52 54 55 56 57
31 31 31 32 31 30 30 30 31 31 32 31 31 31 30 30 30 30 31 31 31 32 33 33 34 35 36 37 38 39 40 41 42 43 45 46 48 50 52 54 55 57 57 58
31 30 30 30 30 30 29 29 29 30 30 30 30 30 30 30 31 31 31 31 32 32 33 34 35 36 37 38 39 40 41 42 44 45 47 48 50 52 54 55 57 57 58 58
30 30 30 30 29 28 28 28 28 28 29 30 30 30 30 31 31 31 31 31 32 33 33 34 35 36 37 39 40 41 42 43 45 46 48 50 52 53 55 56 57 57 57 57
27 27 28 28 27 27 27 27 27 28 28 29 29 29 30 30 30 30 31 32 32 33 34 35 36 37 38 39 40 41 43 44 46 48 50 51 54 56 57 57 57 57 57 57
25 25 26 26 26 26 27 27 27 27 27 27 28 29 29 29 30 31 31 32 33 34 35 36 37 38 39 40 41 43 45 46 48 50 52 54 56 57 57 57 57 57 57 56
24 25 25 26 26 26 26 27 27 27 27 28 28 28 29 29 30 31 31 32 33 34 35 36 37 39 40 42 43 45 46 49 51 53 55 57 57 57 56 56 56 56 56 55
23 24 25 26 26 26 26 26 26 26 27 27 27 28 29 30 30 31 31 32 33 34 35 37 38 40 41 43 45 47 49 51 53 55 56 56 56 55 55 55 56 56 55 53
23 23 24 24 25 25 25 25 26 26 26 27 28 28 29 29 30 30 31 32 33 35 36 38 39 41 43 45 47 49 51 53 54 55 55 54 54 54 54 55 55 53 51 50

GEFSNGP_500_meanwind_126.txt.gz
Wind_Speed
55 54 55 55 55 55 55 53 52 46 44 40 39 38 38 37 36 36 34 33 33 33 34 34 34 34 35 35 36 36 36 36 36 37 37 38 37 38 38 38 38 38 38 38
55 55 56 56 55 53 52 51 49 47 45 40 39 39 39 39 38 37 35 34 33 33 33 34 34 34 34 34 34 35 35 35 36 36 37 37 37 37 37 37 37 37 37 38
56 56 57 57 54 53 51 49 48 47 41 40 41 41 40 39 40 39 37 36 35 34 33 33 33 34 34 34 34 34 34 35 35 36 36 36 36 36 36 36 36 37 37 38
56 56 58 53 50 51 51 49 47 45 42 42 41 40 40 40 40 39 38 37 36 35 34 33 33 33 34 34 34 34 34 35 35 35 35 35 35 35 35 36 36 36 37 37
53 55 55 52 49 47 49 49 46 44 43 42 41 42 42 41 40 39 37 36 36 36 35 34 33 33 34 34 34 34 34 34 34 34 34 34 34 35 35 35 35 36 37 37
50 51 53 50 47 44 46 48 45 45 44 44 44 44 40 38 39 38 38 37 36 36 35 34 33 33 34 34 34 33 33 33 33 34 34 34 34 34 34 35 36 36 37 38
46 47 48 48 49 47 47 42 40 42 44 44 45 42 39 39 39 39 38 38 37 35 35 34 34 34 34 33 33 33 33 33 33 33 34 34 34 34 35 35 36 37 38 39
41 43 43 45 47 46 42 41 39 39 41 43 43 42 41 40 40 39 38 38 37 36 35 34 34 34 34 34 33 33 33 33 33 34 34 34 34 34 35 36 36 37 38 39
38 41 40 42 43 42 42 42 41 39 39 40 40 40 39 39 39 38 38 37 37 35 34 34 33 33 34 34 34 34 34 34 34 34 34 34 34 35 36 36 37 37 38 39
39 41 40 39 39 39 40 41 41 40 40 39 38 37 37 37 36 36 37 37 36 35 35 33 33 33 33 33 34 34 34 34 35 35 35 35 35 36 36 36 37 37 38 40
39 41 41 39 38 37 38 40 41 40 39 39 39 37 36 35 36 36 36 35 35 35 35 34 32 32 32 33 33 34 34 34 34 34 34 35 35 35 36 36 37 38 39 40
39 40 41 40 40 40 39 39 41 40 39 39 38 38 37 36 36 36 35 34 34 34 33 33 33 32 32 33 33 33 33 33 33 33 34 34 35 35 36 37 38 38 39 40
38 40 41 43 42 40 40 40 40 40 40 38 37 38 37 36 35 35 34 34 34 33 33 33 32 32 32 32 33 33 33 33 33 34 34 34 34 35 36 37 38 39 40 41
39 40 42 43 43 41 40 41 40 39 39 39 38 37 36 35 34 34 34 33 33 33 33 33 33 32 32 33 33 33 33 33 33 33 34 34 34 35 36 37 38 39 40 42
39 40 40 41 41 40 41 41 40 39 39 39 38 36 35 35 34 33 33 33 33 33 33 32 32 33 33 32 32 32 33 33 33 34 34 34 35 36 36 37 38 39 41 42
37 39 39 39 39 39 39 39 39 40 40 39 38 35 34 33 33 33 33 33 33 33 33 32 32 32 32 32 32 32 33 33 33 33 34 34 35 36 36 37 39 40 42 43
35 36 38 38 37 37 37 38 38 38 39 39 38 35 34 34 33 33 33 33 33 32 32 31 31 32 33 33 33 32 32 32 32 33 34 34 35 36 37 38 40 41 42 44
32 34 35 37 37 37 37 37 38 37 36 36 36 35 34 34 33 32 33 33 32 32 31 31 32 32 33 32 32 32 32 32 33 33 34 35 36 36 38 39 40 42 43 45
31 32 34 35 35 35 35 36 36 36 35 36 36 36 34 34 33 32 32 32 32 31 31 31 32 32 32 31 32 32 33 33 33 33 34 34 36 37 39 40 41 42 44 46
27 28 31 33 34 33 33 33 33 33 34 34 34 34 34 33 32 31 32 31 31 31 31 31 31 31 30 30 30 31 32 32 33 34 35 36 37 39 40 41 42 43 45 46
25 28 31 32 32 32 31 30 31 31 31 32 32 32 32 32 31 31 31 31 31 30 30 30 30 30 29 29 30 30 31 32 33 35 35 36 38 39 40 41 43 44 46 47
25 28 29 30 30 30 29 29 30 30 30 29 29 29 29 30 30 30 30 31 30 29 29 29 29 29 29 30 31 31 32 33 33 35 36 37 38 39 41 42 44 45 46 48
24 26 27 27 28 28 27 27 27 27 27 28 28 27 27 27 28 29 29 30 30 29 29 29 30 30 30 30 31 32 32 33 34 35 37 38 39 40 42 44 46 47 48 50
23 24 25 26 26 25 25 25 25 25 25 25 25 26 26 27 27 28 28 28 28 28 28 28 28 28 29 30 31 32 33 34 35 36 38 39 41 43 45 46 47 48 49 50
22 23 23 23 24 24 23 24 24 24 24 23 23 23 24 25 26 27 27 27 28 28 28 28 28 29 29 30 31 32 33 34 36 37 39 41 43 45 46 47 48 49 49 49
21 22 22 22 22 23 23 23 23 23 23 22 22 23 24 24 24 25 26 26 27 27 28 28 29 29 30 31 32 33 34 36 37 40 42 43 45 46 47 48 48 49 49 49
21 21 20 20 20 21 21 22 22 22 22 22 23 23 23 23 24 24 25 26 26 27 28 29 30 31 31 32 34 35 36 37 39 41 43 45 46 46 47 48 49 49 50 51

GEFSNGP_500_meanwind_132.txt.gz
Wind_Speed
49 49 52 57 58 58 59 58 58 55 53 49 45 44 42 42 41 40 40 40 40 41 41 41 42 42 43 43 43 43 43 42 42 42 42 41 41 41 41 41 41 40 40 40
49 50 50 53 56 56 56 55 54 54 53 49 47 46 44 42 41 40 40 40 40 40 40 40 41 41 41 42 42 42 42 41 41 41 41 41 41 41 40 40 40 40 39 39
46 49 51 52 52 53 52 51 51 53 51 50 51 48 46 44 43 43 42 41 41 41 41 41 40 40 40 40 41 40 40 40 40 40 40 40 40 40 39 39 39 39 38 39
43 45 48 48 48 50 51 51 50 50 51 51 52 50 48 47 46 45 44 44 43 42 42 41 41 41 40 40 39 39 39 39 38 38 38 39 39 39 38 38 38 38 38 38
41 42 45 46 45 46 49 49 49 50 51 52 51 52 51 49 48 47 46 45 44 43 42 42 42 41 40 39 39 39 38 38 38 38 38 38 38 37 37 38 38 38 38 38
38 40 42 42 42 44 46 48 50 50 52 53 54 54 50 48 48 48 47 45 45 44 43 42 41 40 40 39 39 39 38 38 37 37 37 37 37 37 37 37 37 37 38 38
36 39 41 39 40 43 44 44 47 50 51 52 52 51 48 48 48 49 47 46 45 44 43 42 41 40 39 39 38 38 38 37 37 36 36 36 36 36 36 36 37 37 37 37
35 38 39 37 38 41 42 43 44 47 50 52 51 49 48 47 48 48 47 46 45 44 43 42 41 41 40 39 38 39 38 38 37 36 36 36 36 36 36 36 36 36 36 36
33 36 38 39 39 40 42 44 44 44 46 48 50 49 48 47 46 46 45 44 44 43 42 42 41 40 39 39 39 39 38 38 37 36 36 36 36 36 36 36 35 36 35 35
33 35 37 39 39 39 41 43 44 44 44 45 46 47 47 47 46 45 44 44 43 42 41 40 40 39 39 39 38 38 38 38 37 37 36 36 36 36 36 35 36 35 35 35
34 34 36 38 38 38 39 42 43 44 44 44 44 45 45 45 45 44 44 43 42 42 41 40 39 38 38 38 38 37 37 37 37 37 36 36 36 36 35 35 35 35 35 35
34 34 36 36 38 39 39 40 41 43 44 44 43 43 43 44 43 43 42 42 42 41 40 40 39 38 37 38 38 37 37 36 37 37 36 36 35 35 35 35 35 35 35 36
33 34 35 34 36 39 40 39 39 41 42 43 42 42 42 42 42 41 41 41 41 41 40 39 38 38 38 38 37 37 36 36 36 36 36 35 35 35 35 35 35 35 35 36
32 34 34 34 35 37 38 39 39 40 41 41 42 42 41 41 40 39 40 40 39 39 39 39 38 38 38 38 37 37 36 36 35 35 34 34 34 34 34 34 35 35 36 36
31 32 33 34 35 36 38 39 38 38 39 40 40 41 41 40 39 39 38 38 37 37 38 38 37 36 36 36 37 37 36 36 36 35 35 34 34 34 34 34 34 35 35 36
30 32 33 33 35 35 37 39 39 38 39 40 39 39 40 40 39 38 37 36 36 36 36 36 35 34 34 34 35 35 35 35 35 34 34 34 34 34 34 34 34 34 35 35
30 32 32 32 32 34 35 37 39 38 38 38 38 38 38 39 38 37 36 35 35 35 35 34 34 33 33 33 34 35 35 34 33 33 33 33 34 34 34 34 34 34 35 35
31 30 31 30 31 32 33 35 37 37 36 36 37 37 38 37 36 36 36 35 34 34 33 33 32 32 32 32 33 33 32 32 32 32 32 32 32 33 32 32 33 34 34 35
29 29 30 31 31 31 33 34 36 36 35 35 35 36 35 35 34 34 34 33 32 31 31 31 31 31 31 31 32 31 30 30 30 30 30 30 31 31 32 32 33 34 35 36
26 27 29 30 30 30 31 33 35 35 34 34 33 34 34 34 33 33 32 31 31 30 30 30 29 29 30 30 30 29 29 29 29 29 29 30 30 31 32 32 33 34 35 36
24 26 28 29 28 28 30 32 33 33 33 33 32 32 32 33 33 32 31 30 30 30 29 28 28 28 28 28 29 29 28 28 28 29 29 30 30 31 32 33 34 35 36 37
21 24 26 27 27 27 28 29 30 31 32 32 31 31 32 32 31 31 30 29 29 28 28 28 27 28 27 27 28 28 27 27 28 28 29 30 30 31 32 33 34 35 36 37
19 22 24 25 26 26 26 27 28 28 29 30 30 30 30 31 31 30 29 28 28 27 27 27 28 28 27 26 26 26 26 27 28 28 29 30 31 32 33 34 35 36 37 38
17 20 23 25 26 26 26 25 26 27 28 28 28 28 29 30 30 29 28 27 27 27 27 26 26 25 25 25 26 26 27 27 28 29 29 30 31 32 34 35 36 37 38 39
17 19 22 24 25 25 25 25 25 26 27 26 26 27 28 29 29 28 27 27 26 25 25 25 25 25 25 25 25 26 27 28 29 30 31 31 32 34 35 36 37 38 39 40
16 18 20 22 23 24 23 23 23 23 24 24 24 26 27 27 27 27 26 25 24 24 24 25 25 26 26 26 27 28 28 29 30 30 31 32 33 34 35 36 37 38 39 40
17 19 20 22 22 22 22 22 22 22 22 22 23 24 24 24 24 24 23 23 23 23 24 24 24 25 26 26 27 28 28 29 30 31 32 33 34 34 35 37 38 39 40 41

GEFSNGP_500_meanwind_138.txt.gz
Wind_Speed
36 36 39 42 47 48 49 50 51 49 50 51 50 45 43 43 43 44 44 45 46 46 47 47 47 47 48 48 48 47 46 45 45 44 44 45 45 44 44 43 43 42 42 41
35 37 38 39 43 48 48 48 50 50 50 50 51 48 44 42 43 43 44 44 45 45 45 45 46 46 46 46 46 46 45 45 45 44 43 43 42 42 42 42 42 41 41 41
35 36 37 38 40 43 45 43 47 50 50 50 49 48 46 44 43 45 45 45 44 45 45 45 45 45 45 45 44 44 45 44 43 43 42 41 41 41 40 40 40 41 41 41
33 35 36 34 35 38 41 44 46 50 51 52 49 48 47 46 45 45 45 46 45 45 45 45 45 45 45 44 44 43 43 43 42 42 41 41 40 40 40 40 40 40 40 40
32 34 34 33 33 35 39 42 44 49 51 51 51 50 49 48 47 47 46 46 46 46 46 46 45 45 44 44 43 42 42 41 40 40 40 40 39 39 39 39 39 39 39 39
29 32 33 34 34 33 36 39 42 46 50 51 51 52 51 50 50 49 49 48 47 47 47 46 46 45 44 43 42 41 41 40 39 39 39 38 38 38 38 38 38 38 38 38
27 29 31 32 34 34 36 38 40 43 48 50 52 51 50 51 51 51 50 49 48 48 47 47 46 45 44 42 41 40 40 39 39 39 38 38 37 37 37 37 37 37 37 37
27 29 29 31 33 35 36 38 40 42 45 49 50 51 51 51 52 51 50 49 49 48 47 47 45 44 44 43 42 40 39 39 39 39 38 38 37 37 36 36 36 36 36 36
27 28 28 30 32 34 36 38 40 42 43 47 48 50 51 51 52 52 51 50 50 49 48 47 47 45 44 43 42 41 40 39 38 38 38 37 36 36 35 35 35 35 35 36
27 28 29 30 31 34 36 38 39 41 42 44 46 48 49 50 50 52 52 51 51 50 49 47 46 46 45 44 42 41 40 40 39 38 37 37 36 36 35 35 35 35 35 35
28 27 29 31 33 34 36 37 39 40 42 43 44 46 47 48 48 49 50 50 50 50 49 47 46 46 45 44 43 42 41 40 39 38 37 37 36 35 35 35 35 35 35 36
27 26 29 30 32 34 36 37 39 40 41 42 43 44 46 47 46 46 47 48 48 49 48 47 46 46 45 44 43 42 41 40 39 38 38 37 36 36 36 35 35 34 35 35
28 28 29 30 32 34 35 36 38 39 40 40 40 42 44 45 45 44 45 46 47 47 47 47 46 45 44 44 43 41 40 40 39 38 37 36 36 35 34 34 34 34 34 34
29 30 31 30 31 32 33 34 36 37 38 39 40 40 41 43 45 44 44 44 45 46 45 45 44 43 42 42 41 40 39 39 39 38 37 36 35 34 34 34 34 34 34 35
29 31 32 31 31 32 32 34 35 36 36 36 37 38 39 41 44 44 43 43 43 44 44 43 42 41 41 40 40 40 39 38 38 37 37 36 35 35 35 34 34 34 34 34
26 29 31 31 30 30 31 32 34 35 35 35 36 37 37 39 40 42 42 42 42 42 43 42 42 41 40 39 39 38 38 37 37 36 36 35 35 35 34 34 34 34 34 34
25 27 28 29 30 30 31 31 33 35 35 34 34 35 37 38 39 39 40 40 40 41 41 41 41 40 39 38 37 36 36 36 36 35 35 35 34 34 34 34 34 34 34 33
22 24 27 29 30 30 31 32 33 34 34 34 34 35 36 38 39 39 38 38 39 39 39 39 39 39 38 38 36 35 35 35 35 34 34 34 34 34 34 34 33 33 33 33
21 22 24 28 29 29 31 32 33 33 34 34 33 33 34 36 38 38 39 38 37 37 37 37 37 38 37 36 35 34 33 33 33 33 33 33 33 33 32 32 33 33 33 33
21 22 23 26 29 29 29 30 31 32 33 34 33 32 33 35 36 37 37 37 37 37 36 36 35 35 35 35 34 33 32 32 32 31 32 31 31 32 32 32 32 33 33 34
19 20 22 25 27 29 28 29 31 32 32 33 33 33 33 33 34 35 35 35 35 35 35 34 33 34 34 33 32 31 31 30 30 29 29 30 31 32 32 32 32 33 33 33
16 18 20 23 25 27 27 28 29 30 31 32 33 34 33 32 32 33 33 33 33 33 33 33 32 31 31 31 30 30 29 30 29 28 28 29 30 30 31 31 31 31 31 32
13 15 18 22 24 25 26 27 28 29 30 31 32 33 32 31 31 31 31 32 32 32 32 31 31 30 30 29 28 28 28 28 27 27 27 28 28 28 28 29 30 31 31 31
10 13 15 19 23 24 26 27 27 27 29 30 31 33 33 31 31 31 30 31 31 32 31 30 29 28 28 28 27 27 26 26 26 26 26 27 28 28 28 28 29 29 29 30
10 11 13 15 19 22 25 26 27 27 27 27 29 30 31 32 31 31 30 31 31 30 29 29 28 27 26 26 26 26 26 25 25 26 26 27 27 27 28 28 28 29 30 31
9 11 13 14 17 20 23 24 25 26 26 27 28 29 30 30 30 30 30 30 30 29 28 27 26 26 25 25 24 24 24 24 24 24 24 25 25 26 27 27 28 29 30 31
10 12 14 15 17 19 21 22 25 26 26 27 28 28 28 28 28 28 28 29 29 28 28 27 26 25 24 24 23 22 22 22 23 23 23 24 24 25 26 27 28 29 30 31

GEFSNGP_500_meanwind_144.txt.gz
Wind_Speed
27 28 30 34 38 40 44 47 46 42 41 39 38 40 40 40 41 43 45 47 49 51 51 52 52 52 53 52 52 51 49 48 47 46 46 45 45 45 44 44 44 43 43 43
28 29 31 32 35 38 42 45 46 45 43 41 40 41 41 40 40 41 43 45 47 49 50 50 50 50 51 51 51 51 50 49 47 46 45 45 44 45 45 45 44 44 43 43
26 27 29 31 32 35 41 43 46 46 44 42 41 41 40 40 41 41 42 44 46 47 48 49 49 49 49 49 49 49 49 49 48 46 46 45 45 45 45 44 44 43 42 42
24 26 27 28 29 33 37 40 43 45 44 44 42 41 41 41 41 41 42 45 46 47 48 48 48 49 49 48 48 48 48 47 47 47 45 44 43 43 42 42 42 41 41 41
23 25 26 28 28 30 34 37 40 43 44 44 45 44 43 42 42 43 44 45 45 46 47 48 48 48 48 47 47 47 47 46 45 44 44 43 42 42 41 40 39 39 39 39
22 23 25 27 27 28 32 36 39 40 43 43 44 46 45 44 44 44 45 46 45 45 46 47 47 47 46 46 46 45 45 45 44 43 42 42 41 40 40 39 38 37 37 36
23 23 25 27 28 28 32 34 37 39 41 43 45 44 45 46 45 45 46 46 46 45 45 46 47 47 46 45 45 44 44 43 42 42 41 41 40 40 39 38 37 37 36 36
24 25 25 26 27 29 31 34 36 39 40 42 44 45 45 46 48 47 47 46 47 46 46 46 47 47 46 45 45 44 43 42 41 41 40 40 39 38 37 36 36 35 35 35
26 26 26 27 28 29 30 32 34 37 39 40 42 44 45 46 47 48 48 48 48 47 47 47 47 47 47 46 45 44 43 42 41 40 39 39 38 37 36 35 35 34 34 34
26 27 28 29 30 31 32 33 34 35 37 39 41 42 44 45 46 47 48 50 49 48 49 48 47 47 47 46 45 44 43 42 41 40 39 39 37 36 35 34 34 33 33 33
26 26 28 29 31 32 33 34 35 36 37 39 41 42 43 44 46 46 47 48 49 49 50 50 48 48 48 47 45 44 43 41 41 39 38 38 36 35 34 33 33 32 32 32
26 26 28 28 30 32 33 34 35 36 37 38 40 41 42 43 46 47 47 47 48 49 49 50 49 49 48 47 46 45 43 42 41 40 39 37 35 34 33 32 32 31 31 31
27 28 29 29 29 31 33 34 35 36 37 38 39 41 42 43 45 47 47 47 48 48 49 49 49 49 48 48 47 46 44 43 41 40 39 37 35 34 33 32 32 32 31 30
28 29 30 30 30 30 31 33 34 36 37 37 39 41 42 43 44 45 46 47 47 48 49 48 48 48 48 47 46 46 45 43 42 40 38 37 36 34 34 33 32 32 31 31
26 26 27 29 30 31 31 31 33 35 36 37 39 40 41 42 43 44 45 46 46 47 48 48 48 47 47 47 46 45 44 43 41 39 38 37 36 35 34 33 33 32 31 31
25 26 26 27 29 30 31 31 31 32 34 36 37 39 39 40 42 43 44 45 45 45 46 47 46 46 46 47 46 45 44 42 41 39 38 38 36 35 34 34 33 32 32 32
23 23 24 25 27 29 30 31 31 31 31 32 34 37 38 38 40 41 42 43 44 45 44 44 45 45 46 46 46 45 44 43 42 41 39 38 37 36 35 34 33 32 32 33
21 22 22 21 23 26 28 29 29 29 30 31 32 34 35 37 38 39 41 42 43 44 43 43 43 43 44 45 45 44 44 43 43 42 40 39 38 37 36 35 34 33 33 33
19 20 20 21 22 23 25 28 29 29 30 31 31 32 33 34 36 38 39 40 41 42 42 43 43 43 43 43 43 43 43 42 41 41 40 39 38 37 36 35 34 34 33 33
18 18 18 19 20 22 24 26 28 29 30 31 31 32 33 33 34 35 37 38 39 40 41 42 42 42 42 42 42 42 42 41 40 39 38 37 37 36 36 35 34 34 33 33
17 17 18 18 18 19 22 24 26 28 30 31 31 32 32 33 34 35 35 36 37 38 39 39 39 40 40 40 40 40 39 39 38 37 36 36 35 35 35 34 33 33 32 32
17 17 17 17 17 18 20 23 25 27 29 30 31 31 32 33 34 34 34 35 36 36 37 37 37 38 38 37 38 37 37 36 36 35 35 34 34 34 33 33 32 32 31 31
16 16 15 14 14 15 18 20 23 25 27 29 29 30 31 31 32 32 32 32 33 33 34 35 36 36 36 35 35 34 34 34 34 33 33 32 32 31 31 30 30 30 30 29
15 15 14 13 13 13 15 18 21 23 26 28 29 29 30 30 30 30 30 30 30 31 32 33 34 34 33 33 32 32 32 32 32 32 32 31 30 30 29 28 28 28 28 28
13 14 13 12 12 12 13 15 18 21 24 26 28 29 29 29 29 28 28 28 28 28 29 30 31 31 31 30 30 30 30 31 31 31 30 30 29 29 28 27 27 27 27 27
10 11 12 11 11 12 13 15 17 19 22 25 27 27 27 27 28 28 28 28 27 26 27 29 29 28 28 28 28 29 29 29 30 29 29 28 28 27 26 26 26 26 27 27
9 9 10 10 11 13 14 15 17 19 22 24 26 26 26 27 28 28 27 27 26 26 26 27 28 28 28 27 27 27 28 28 28 28 28 27 26 25 24 24 24 25 26 26

GEFSNGP_500_meanwind_150.txt.gz
Wind_Speed
18 19 22 26 29 32 34 36 37 37 36 35 36 38 39 39 40 41 45 48 49 50 52 53 53 54 54 53 53 52 51 50 49 48 46 45 44 44 43 43 42 42 42 42
19 20 21 24 27 28 32 35 37 37 36 37 37 39 41 40 40 40 43 46 48 49 51 52 52 53 53 53 52 52 51 50 50 49 48 47 45 45 44 43 42 42 42 42
20 19 19 22 24 27 30 34 37 37 35 37 38 40 43 42 41 41 42 44 46 48 49 50 51 51 51 52 52 52 51 50 50 49 49 48 46 45 44 43 43 42 42 42
20 21 21 19 22 24 27 31 35 36 35 36 37 40 43 43 42 42 42 43 45 46 47 48 50 50 50 51 52 52 51 50 49 49 49 48 47 45 45 44 43 43 43 43
21 21 21 19 20 23 26 29 33 35 35 35 37 39 42 43 42 43 44 45 46 46 46 48 49 50 50 50 51 52 51 51 50 50 49 48 47 46 45 44 43 42 42 41
21 21 21 20 20 22 26 29 32 34 35 35 38 40 41 41 42 42 44 44 46 46 46 47 47 48 49 50 50 51 51 50 50 50 49 48 47 46 46 45 43 42 41 40
20 21 21 20 20 22 25 28 31 33 35 36 38 40 40 41 41 42 42 43 44 45 46 47 47 47 48 49 49 50 50 50 50 49 48 47 46 45 45 45 43 42 40 39
21 22 21 22 22 23 24 28 31 33 34 35 37 39 40 41 41 41 41 42 43 44 45 46 46 47 47 49 49 49 48 49 49 48 47 46 45 44 44 43 42 41 40 38
22 22 22 23 24 24 26 28 30 33 34 35 37 38 40 41 42 42 42 42 42 44 44 45 46 46 47 48 49 49 48 48 48 48 47 46 45 44 42 41 41 40 39 38
22 21 22 24 25 25 25 27 29 31 33 35 37 38 39 41 42 43 44 43 43 44 44 46 46 45 44 46 48 49 47 46 46 46 46 45 43 43 42 41 40 40 39 38
21 21 22 24 26 26 26 27 28 30 32 35 37 39 40 41 42 43 43 44 44 44 44 45 46 45 44 44 45 46 47 47 46 45 44 44 43 42 41 40 39 38 37 37
21 22 23 23 25 27 28 28 28 30 31 33 36 39 40 41 42 43 45 45 45 45 45 45 45 45 45 44 44 44 45 46 46 45 45 44 43 42 40 39 38 37 36 35
22 23 23 24 25 26 27 28 29 31 32 32 35 38 40 42 42 43 45 46 46 46 45 45 45 45 44 44 44 44 45 45 45 45 44 43 42 41 40 38 38 37 36 35
23 23 24 24 25 26 27 28 29 30 32 33 34 36 39 41 42 41 43 46 47 47 47 47 47 45 44 44 44 44 45 45 44 44 43 42 41 41 39 38 37 36 35 34
22 23 23 24 25 26 27 29 29 29 30 32 34 35 37 40 41 42 43 45 46 47 48 47 46 46 45 45 46 46 46 46 45 43 42 41 41 40 38 37 36 35 35 34
22 22 23 24 25 26 27 29 30 29 29 31 33 34 35 36 39 42 44 45 46 46 47 47 46 46 46 45 45 45 45 45 45 43 42 41 41 39 38 36 35 35 35 34
20 21 22 23 24 25 26 27 28 29 29 30 31 32 33 34 36 39 43 45 46 46 47 47 46 46 46 45 45 44 44 44 44 44 43 42 41 40 38 37 36 35 35 34
19 20 20 21 21 22 23 24 25 26 27 28 29 30 32 33 35 36 40 43 44 45 47 47 46 46 46 45 45 44 43 43 44 43 42 42 41 40 38 37 36 35 34 34
18 19 19 18 19 20 20 20 22 24 26 27 28 29 31 32 34 35 36 38 40 42 44 45 45 46 46 45 44 44 43 42 43 43 41 41 41 39 38 36 35 34 34 33
17 17 16 16 17 18 18 19 20 22 23 25 26 28 29 30 32 34 35 37 37 38 40 42 42 43 43 42 42 42 41 41 41 41 41 39 39 39 38 37 35 35 34 33
17 17 16 16 16 16 16 17 19 20 22 24 25 27 29 29 31 32 34 35 35 35 37 38 39 40 41 41 41 40 40 39 39 39 39 38 38 38 37 36 35 34 33 33
17 17 17 16 16 16 16 16 17 19 21 22 24 26 27 28 29 31 33 34 34 34 35 36 38 39 39 39 39 39 39 39 38 38 38 38 37 37 36 36 35 34 33 32
17 17 16 16 16 15 16 16 16 17 19 21 23 25 27 27 28 29 30 32 34 34 34 35 37 37 38 38 39 39 39 38 38 37 37 37 37 36 35 35 35 34 32 31
16 15 15 15 15 14 14 15 16 16 17 20 23 24 25 25 26 27 28 30 32 32 33 34 35 36 37 37 38 38 37 37 37 37 37 36 36 35 34 34 33 32 31 30
15 14 13 14 14 14 14 15 15 16 17 19 22 23 24 24 25 26 26 27 29 31 32 32 34 35 36 36 36 36 36 36 36 36 36 35 35 34 33 32 30 29 29 28
13 12 11 11 12 13 14 15 15 17 17 18 20 22 23 25 25 25 25 26 27 28 30 31 31 33 35 35 35 36 36 36 35 35 34 34 33 32 31 29 28 28 27 27
11 10 10 10 10 10 12 13 14 15 18 19 20 21 22 24 26 25 25 25 26 27 29 29 30 31 32 33 33 33 34 34 33 33 33 32 32 31 29 28 27 27 27 26

GEFSNGP_500_meanwind_156.txt.gz
Wind_Speed
23 22 22 22 23 24 26 27 28 27 28 28 27 30 32 35 39 41 43 45 47 49 51 53 55 57 58 59 58 57 57 56 54 53 53 52 51 50 49 48 46 46 45 44
22 22 23 23 22 24 26 27 29 29 29 30 31 31 33 35 38 41 43 44 45 48 50 51 53 55 57 58 58 57 56 56 55 53 53 53 52 51 51 50 48 47 46 45
23 22 23 22 21 23 25 27 29 30 30 32 33 33 33 36 38 39 42 44 46 48 49 51 51 53 55 56 56 57 57 56 56 55 54 52 52 52 51 50 49 48 47 46
24 22 22 20 21 23 24 26 28 29 31 32 33 34 36 36 38 40 41 44 46 48 50 51 51 52 54 56 56 56 57 57 56 55 54 53 53 52 51 50 49 48 46 45
25 24 23 21 21 22 24 24 26 29 31 32 33 35 37 38 39 40 41 43 44 46 49 50 51 51 53 55 55 55 56 56 56 55 55 53 52 52 51 49 48 48 47 45
26 25 24 21 22 23 23 22 24 27 29 31 33 35 36 39 40 40 42 43 44 45 47 50 50 50 51 53 54 55 55 55 56 55 55 54 52 51 50 49 48 47 46 45
25 25 23 21 22 23 23 22 24 26 28 29 32 34 36 38 40 41 42 42 43 44 46 49 50 50 51 51 52 54 54 54 54 55 54 54 53 51 50 49 48 47 46 45
25 25 23 22 22 23 23 24 25 26 27 29 30 34 37 38 39 40 42 43 43 43 45 48 49 50 51 51 52 53 54 54 54 53 53 53 52 51 50 49 48 47 46 44
26 25 24 24 24 24 24 25 25 26 27 28 30 32 36 37 38 39 41 42 43 44 44 47 49 50 50 51 52 53 53 54 54 53 52 52 51 50 50 49 48 46 44 43
26 24 24 24 24 24 25 25 25 26 27 29 30 31 34 37 38 40 42 43 43 43 44 46 48 49 50 51 50 51 52 53 53 53 53 52 51 51 50 49 47 45 44 42
25 23 24 24 24 24 25 24 25 25 27 28 29 32 34 36 38 39 41 42 43 44 44 45 46 48 49 50 50 50 51 52 52 52 52 52 51 51 49 48 47 45 44 42
24 24 24 24 25 25 25 25 25 25 26 28 28 30 33 35 36 38 40 41 42 43 44 44 45 47 48 48 49 49 49 49 50 50 50 50 50 50 49 47 46 44 43 43
25 24 25 24 25 26 26 26 26 26 26 27 27 28 31 33 35 36 38 40 40 42 44 45 44 46 47 47 48 47 47 48 48 48 48 48 48 48 47 46 45 44 43 42
25 25 24 24 25 26 27 26 26 26 27 27 27 28 30 32 34 36 37 39 41 42 44 46 45 45 46 47 48 48 47 47 46 46 47 47 46 46 46 44 43 42 41 40
25 25 25 25 26 26 26 26 26 27 28 28 28 28 30 31 33 35 37 38 40 41 43 45 46 46 46 46 47 48 48 47 46 45 45 46 45 45 44 43 42 41 40 40
24 24 25 25 25 25 26 26 26 27 28 28 29 29 29 31 33 34 36 38 40 40 41 43 45 45 46 45 44 46 46 46 46 45 44 44 44 43 43 42 41 40 40 39
23 23 23 23 24 24 25 26 26 27 27 28 28 28 29 30 31 34 36 37 38 39 41 42 43 43 44 44 43 43 44 45 44 44 43 42 42 41 41 41 40 39 38 37
22 21 21 22 22 23 23 24 25 26 26 26 26 26 27 28 29 31 33 36 37 38 39 41 41 42 43 43 44 43 42 43 44 43 42 41 41 41 40 40 39 38 37 36
22 21 21 21 22 22 22 22 23 24 25 25 24 25 25 26 26 28 30 32 34 36 38 39 40 40 42 43 42 42 42 42 42 42 42 41 40 39 38 38 37 36 36 35
22 22 21 21 21 20 20 19 20 21 23 24 23 23 23 23 24 26 28 30 32 34 36 38 39 40 41 42 42 41 42 42 42 41 40 39 38 37 37 36 36 35 35 34
22 21 21 21 21 20 19 18 18 19 20 22 22 22 22 22 23 24 26 28 30 32 33 36 38 40 40 41 41 41 41 42 41 40 39 38 37 36 35 35 35 34 34 34
21 21 21 21 20 19 18 17 17 16 17 19 20 21 21 22 22 23 24 26 28 29 31 33 36 38 39 40 40 40 41 40 41 40 39 37 36 35 34 34 34 34 33 33
21 21 21 20 19 18 18 17 16 15 16 17 18 19 20 21 22 22 24 26 27 28 30 32 35 37 39 39 38 38 38 38 39 39 38 36 35 34 34 33 33 33 32 32
21 21 20 19 18 17 17 17 16 15 15 16 16 18 19 20 22 22 23 24 25 26 28 31 33 36 37 38 38 38 38 38 38 38 38 37 36 35 33 33 33 32 32 32
20 19 18 18 17 17 17 17 16 15 14 14 14 16 18 19 21 23 24 23 24 26 27 29 32 33 35 36 37 38 38 38 38 38 38 37 36 35 34 33 33 33 32 31
19 19 18 17 16 15 15 15 15 15 14 13 13 14 17 19 21 22 24 23 23 25 26 28 30 31 33 34 35 36 37 39 38 37 36 36 36 36 34 33 33 33 31 30
18 18 17 16 16 15 14 14 13 13 13 14 14 15 17 19 20 21 22 22 23 23 25 27 29 30 31 32 33 35 36 37 37 36 36 35 35 34 34 33 33 32 31 30

GEFSNGP_500_meanwind_162.txt.gz
Wind_Speed
30 28 27 25 24 24 24 24 24 22 21 18 19 20 21 24 26 29 30 34 39 42 45 49 54 57 58 58 59 59 59 58 57 57 57 56 55 53 53 53 51 48 46 46
31 29 28 26 24 25 25 25 25 24 21 20 20 20 21 24 26 29 31 33 37 42 44 47 50 54 56 57 58 57 58 58 55 55 56 57 56 54 53 53 52 50 47 46
31 29 29 27 25 25 26 24 25 25 23 22 21 21 21 23 27 29 31 33 37 41 44 47 49 51 54 54 56 57 58 57 55 54 55 55 55 54 53 52 52 51 49 47
32 30 28 27 25 26 26 25 25 25 24 23 23 23 23 23 26 28 31 34 37 39 42 45 48 50 52 54 54 55 57 57 56 55 55 54 54 54 54 52 51 51 49 48
32 31 29 27 26 26 26 25 25 25 25 24 25 25 24 24 26 27 30 33 36 39 41 43 46 49 51 53 54 54 55 57 56 55 55 54 54 53 53 51 50 49 48 47
33 32 30 27 26 26 26 26 25 25 26 26 26 26 26 26 27 28 30 32 35 38 42 43 45 48 50 51 53 53 53 55 55 55 55 55 54 53 52 51 49 47 46 46
33 33 30 28 27 26 26 25 24 26 26 27 27 27 27 28 28 29 30 32 34 36 40 42 44 47 47 49 52 53 53 54 54 54 55 55 54 54 52 51 49 47 45 44
32 32 30 28 27 26 26 26 25 25 26 27 28 28 28 28 28 29 31 33 35 36 38 40 43 45 46 47 50 51 52 53 53 53 54 54 54 54 53 52 50 49 47 45
32 30 29 28 27 27 26 25 25 25 26 26 27 28 28 28 29 29 31 33 36 37 38 39 41 43 45 47 48 50 51 52 53 53 53 53 53 52 52 51 50 48 48 46
31 28 28 28 27 27 27 25 24 25 25 25 26 26 27 28 29 29 30 32 35 38 39 39 41 43 45 45 47 48 50 51 52 53 52 52 51 51 50 50 49 48 47 46
30 28 28 27 27 27 26 25 24 24 25 25 25 25 26 27 28 28 29 32 35 37 39 40 40 43 45 45 46 47 49 50 51 51 52 51 51 50 49 48 46 46 44 44
28 28 27 26 26 27 26 25 25 25 25 25 25 25 26 26 27 28 28 31 34 36 38 39 40 41 44 45 45 47 48 49 50 51 51 51 51 50 49 48 47 46 44 43
28 28 27 26 26 26 26 26 25 25 25 25 25 25 25 25 25 27 28 30 33 35 37 38 40 41 42 44 46 46 47 48 49 50 50 50 49 49 48 48 47 46 45 43
28 27 27 26 26 26 26 25 25 25 25 25 25 25 25 25 26 27 27 29 31 34 36 38 39 41 42 43 44 45 46 47 49 49 49 48 47 47 47 48 47 46 44 43
28 27 26 25 25 25 26 25 25 24 24 25 25 25 24 24 25 26 28 29 30 32 35 37 38 40 42 43 44 44 46 47 48 48 48 47 46 46 47 47 47 46 44 43
27 26 26 25 24 25 25 24 24 23 23 24 24 24 24 24 24 25 27 29 30 32 33 36 37 39 41 43 44 45 46 46 46 46 47 47 47 46 46 45 45 45 44 42
26 25 25 24 24 24 24 23 23 22 22 23 24 24 23 24 25 25 26 28 29 31 32 35 37 38 40 41 42 44 45 46 46 46 46 47 47 46 45 44 44 43 43 42
25 24 23 23 22 21 22 22 22 21 21 22 23 23 23 23 24 24 26 27 28 29 31 33 35 37 40 41 42 43 44 45 47 47 47 47 46 46 45 45 44 43 42 41
24 23 22 22 21 20 20 20 20 20 20 20 21 22 22 22 23 23 24 25 26 27 29 31 34 35 38 40 40 41 43 44 46 46 47 47 46 44 44 44 42 42 41 39
22 21 21 20 20 20 18 18 18 18 18 18 19 20 20 21 21 22 23 23 25 26 28 30 32 34 36 38 39 40 42 44 45 45 45 46 45 44 42 41 40 40 39 37
20 20 20 19 19 19 18 17 16 16 16 16 16 17 18 19 20 21 21 22 23 24 26 28 31 33 35 37 38 39 41 42 44 44 44 44 43 43 42 41 40 39 37 36
19 18 18 18 18 18 18 17 16 15 14 14 15 15 17 18 19 20 20 21 22 23 24 26 29 32 34 36 38 39 41 42 42 42 43 43 41 41 41 40 39 38 36 35
18 18 17 17 17 17 17 17 16 15 14 15 15 15 16 17 19 19 20 20 21 22 23 24 27 30 33 36 38 39 41 41 41 41 41 41 41 40 40 40 39 37 35 34
19 18 17 16 16 16 16 16 16 15 15 15 15 15 16 16 17 18 19 20 21 21 22 23 26 29 31 34 36 37 39 39 40 39 40 41 40 40 39 39 38 37 35 34
18 17 17 16 15 15 16 16 15 15 15 15 14 14 15 16 16 17 19 20 20 21 22 23 25 28 30 32 34 36 37 37 38 37 38 38 39 39 38 38 37 36 34 33
17 16 16 16 16 15 15 15 15 15 14 13 13 14 14 15 16 17 18 19 20 20 21 23 25 27 29 31 32 34 35 36 37 37 37 37 37 37 37 36 36 35 34 33
15 15 15 15 14 14 14 13 13 13 13 13 12 13 14 15 16 17 17 18 19 20 21 22 24 26 28 30 31 33 35 35 35 36 37 37 37 37 36 36 35 34 34 33

GEFSNGP_500_meanwind_168.txt.gz
Wind_Speed
42 40 39 38 36 36 36 35 36 33 32 29 28 28 28 27 26 25 25 25 26 28 30 33 36 39 43 46 49 50 52 54 53 54 53 55 55 55 55 53 51 49 47 46
43 41 40 39 36 35 35 35 36 35 31 29 30 29 28 27 26 26 26 26 26 27 30 32 35 38 41 45 48 49 50 52 52 54 52 53 53 52 51 51 51 50 48 45
44 41 42 40 37 36 36 35 35 35 32 31 30 29 29 27 26 26 27 27 27 27 29 32 35 37 42 45 47 48 48 50 50 51 53 53 54 53 52 51 50 48 46 44
45 44 43 39 38 37 36 34 34 34 33 32 31 30 29 28 27 26 27 27 28 28 29 31 34 37 41 44 47 48 48 48 50 51 52 52 53 53 52 51 51 48 46 43
45 45 45 39 38 38 36 34 33 33 33 33 32 31 29 29 27 26 26 27 28 29 30 31 33 36 40 43 47 48 47 48 48 49 50 50 50 52 52 50 51 49 47 44
45 46 46 42 40 38 37 34 32 33 32 32 32 31 30 30 28 27 27 27 28 30 31 33 34 35 38 41 45 47 47 49 49 49 48 47 48 49 50 50 50 49 48 44
44 45 45 41 40 38 37 36 34 32 32 32 31 31 30 29 29 28 28 28 28 29 31 33 35 36 37 40 43 46 47 47 48 48 48 47 45 47 49 49 49 48 47 45
43 44 43 41 39 38 37 36 35 33 32 31 30 30 29 29 29 29 28 29 29 29 30 33 35 36 37 39 41 44 47 47 46 47 48 47 46 46 48 48 48 47 46 45
43 42 42 40 39 38 37 36 35 33 32 30 30 29 28 29 29 29 29 30 30 31 31 32 35 37 38 39 41 42 44 46 47 47 47 47 47 46 46 47 47 46 45 44
43 40 39 39 38 37 36 34 34 33 32 31 30 29 29 28 28 28 29 30 30 31 32 33 35 37 38 39 42 42 43 44 46 46 46 46 46 46 47 46 44 44 45 45
41 38 38 37 37 35 34 34 33 32 32 31 29 28 29 29 28 27 28 29 30 30 32 33 35 37 39 39 41 42 43 43 44 45 45 45 46 46 46 46 45 44 43 43
39 37 37 35 35 34 34 33 33 32 31 30 29 29 29 28 28 27 27 28 29 29 30 32 33 36 39 40 41 41 42 43 43 44 45 44 45 45 46 46 44 43 42 42
38 37 36 34 34 34 34 33 33 32 31 30 29 29 28 28 27 27 27 27 28 29 29 30 32 35 37 38 39 40 41 42 42 44 44 45 44 45 46 46 46 44 43 41
37 36 34 34 34 34 33 32 32 31 30 29 28 28 28 28 27 27 27 27 27 27 28 29 31 34 37 37 38 39 39 40 40 41 43 44 44 45 46 46 45 44 43 41
35 34 33 33 33 32 32 31 31 30 29 28 27 27 26 27 27 26 26 26 26 27 27 28 29 32 35 37 37 38 39 39 39 40 41 43 44 45 46 47 46 45 44 43
33 32 32 32 32 31 31 30 30 29 28 27 27 26 25 25 26 26 26 26 26 27 27 28 28 30 33 34 36 37 38 39 39 40 41 42 43 44 45 47 46 46 44 43
31 31 31 31 31 30 29 29 29 28 27 26 26 25 25 24 25 25 25 26 26 26 27 28 29 30 31 32 34 36 37 39 39 40 41 42 42 42 43 45 46 45 44 43
30 30 30 30 30 29 27 27 26 26 25 25 25 24 24 24 23 23 24 24 25 25 26 27 29 29 30 30 32 35 36 38 40 41 41 41 42 42 43 43 43 43 43 42
29 29 29 29 28 27 26 25 25 25 24 24 23 23 23 22 22 22 22 23 23 24 25 26 28 29 29 30 31 33 35 36 38 40 42 42 41 41 41 41 42 41 41 41
28 29 28 27 26 26 25 24 24 24 23 23 22 21 21 20 20 20 20 21 22 23 24 25 27 28 29 29 31 32 33 35 37 38 40 41 42 41 40 41 41 40 40 40
28 27 26 25 25 24 24 24 23 23 22 21 20 20 19 19 19 19 19 19 20 22 22 24 26 28 28 28 29 31 32 32 34 36 37 39 40 40 41 41 40 40 40 39
26 25 24 24 23 23 22 22 21 21 20 19 19 18 17 17 17 17 18 19 20 21 22 23 25 27 27 27 28 29 30 31 32 34 35 36 37 38 38 39 40 40 39 38
25 24 23 22 21 20 20 19 19 18 18 17 17 16 15 16 16 17 17 19 19 20 21 22 24 25 26 26 28 29 30 31 32 33 35 35 35 36 37 38 39 39 38 38
23 22 21 20 19 19 18 18 17 17 17 17 16 16 15 15 15 16 17 18 19 19 20 21 22 23 24 25 27 28 30 31 32 33 34 35 35 35 36 37 38 38 38 37
22 21 20 19 19 18 18 17 17 16 16 16 15 15 14 14 14 15 16 17 18 19 19 20 21 22 23 24 26 27 28 30 32 32 33 35 35 35 35 36 38 38 37 36
20 20 19 19 18 18 17 16 15 15 15 15 15 14 14 14 15 15 16 17 18 19 19 20 21 22 22 23 25 26 27 29 31 31 32 33 34 35 35 35 36 37 36 35
20 19 18 18 17 17 16 15 15 14 14 14 14 15 15 15 15 15 15 16 18 18 19 19 20 21 22 23 24 25 26 27 29 30 31 33 33 34 34 35 35 35 35 34

GEFSNGP_500_meanwind_174.txt.gz
Wind_Speed
43 42 42 41 41 40 41 41 42 40 39 38 36 36 35 33 32 31 29 29 28 27 26 25 26 27 29 31 33 34 35 36 39 42 44 44 47 46 44 43 44 46 48 49
44 44 43 43 41 41 40 40 40 39 38 37 37 36 35 33 32 31 29 28 27 27 26 26 27 27 29 32 33 33 34 36 38 41 43 44 43 44 43 44 44 46 47 47
46 44 45 43 42 40 39 38 39 39 38 37 36 36 35 33 31 29 28 28 26 25 25 26 28 28 29 31 33 33 34 36 39 41 42 43 43 41 44 45 45 44 45 47
46 45 45 44 42 40 39 38 38 38 37 37 37 36 34 33 31 29 28 28 27 25 25 26 28 29 30 31 32 33 34 36 39 41 42 41 40 40 41 44 43 43 45 46
45 46 47 43 41 41 40 38 37 38 38 38 36 36 34 33 31 29 28 27 27 26 25 26 27 29 30 31 32 33 34 35 39 41 42 41 40 40 41 43 42 43 44 44
46 47 47 43 41 41 41 39 37 37 38 37 36 35 33 32 32 30 29 27 26 25 25 26 26 27 29 30 31 32 33 35 38 41 42 42 40 40 41 43 43 44 45 44
45 46 45 42 41 40 41 40 38 37 37 36 36 35 33 32 31 30 30 28 26 26 25 25 27 28 29 28 30 31 32 33 35 38 40 41 42 40 41 43 43 42 44 44
43 45 43 41 41 41 41 40 39 39 37 36 35 34 33 32 31 30 29 28 26 26 25 25 27 28 29 28 30 32 33 33 33 35 38 40 42 42 42 42 41 41 42 42
43 43 41 41 41 41 41 40 39 38 37 36 35 34 33 33 31 30 29 28 27 26 25 25 26 27 28 29 29 31 33 34 33 33 35 37 40 42 42 42 40 39 41 42
43 41 40 41 41 41 40 40 39 37 36 35 35 34 33 32 31 30 29 28 27 26 25 24 25 27 28 30 30 30 32 33 34 33 34 35 38 41 42 41 40 39 40 40
43 41 40 39 40 39 39 38 37 36 35 35 34 33 32 31 30 29 28 27 26 25 24 24 25 26 28 30 31 32 32 33 34 34 34 34 36 40 41 40 39 40 40 39
42 40 41 39 37 37 37 36 36 35 34 34 33 32 31 30 29 28 28 27 26 25 24 24 25 26 28 29 31 32 34 34 35 35 35 35 36 39 39 39 39 40 41 41
41 39 39 37 36 35 35 35 35 34 33 33 32 31 30 30 29 27 27 26 25 25 25 25 25 26 28 29 30 31 33 35 36 35 35 35 36 39 39 40 39 39 40 42
38 37 37 36 35 34 34 34 33 33 32 32 31 30 30 29 27 26 25 25 25 25 25 25 25 26 28 29 29 30 32 34 36 36 36 36 37 39 39 39 38 38 39 41
35 35 35 34 33 33 33 33 32 31 31 30 30 29 29 28 26 25 25 24 24 24 24 24 25 26 27 28 29 30 31 34 35 35 36 37 37 38 38 39 39 39 39 40
33 33 33 32 32 32 31 31 30 30 29 29 29 28 28 27 26 25 25 24 23 22 23 23 24 25 27 28 29 30 31 33 34 35 36 37 37 38 39 39 38 38 38 39
32 31 31 30 30 30 29 29 29 29 29 29 28 27 27 26 25 24 24 24 23 22 22 22 23 24 26 27 28 29 31 32 33 34 36 37 37 39 39 38 38 38 38 38
30 29 29 29 28 28 28 28 28 28 28 27 27 26 26 25 24 23 23 22 21 21 21 21 22 24 25 26 28 29 30 31 33 35 35 36 37 38 39 39 39 38 38 37
28 28 27 27 26 27 26 26 27 27 26 25 24 24 23 22 21 20 19 19 18 19 19 20 21 23 24 25 27 28 29 31 33 34 35 36 37 38 38 39 39 39 38 37
26 26 25 25 26 26 26 26 25 25 24 23 22 22 21 20 18 18 18 17 16 17 18 19 20 22 24 25 26 27 28 29 31 33 35 35 36 37 38 39 39 40 39 37
24 24 25 25 25 25 25 24 23 23 22 21 20 20 19 18 17 16 16 15 16 17 18 19 20 21 22 24 25 26 26 27 29 30 32 34 35 36 37 37 38 39 39 37
24 24 25 25 24 24 23 23 22 20 19 18 18 17 16 16 16 15 14 14 15 16 17 18 19 20 21 23 24 25 26 27 27 28 30 33 34 35 36 37 38 38 38 37
24 23 23 24 23 23 22 21 19 18 17 16 15 15 15 15 14 14 14 14 14 15 16 18 19 20 21 22 23 24 25 26 28 29 30 32 33 34 35 37 37 37 37 36
23 23 23 23 22 20 20 18 17 16 16 15 15 14 14 14 14 14 14 13 14 14 16 17 19 20 21 21 22 24 25 27 28 29 29 30 31 32 33 35 36 36 36 36
22 22 22 21 19 18 18 17 16 15 15 15 15 15 14 14 14 13 13 13 13 14 15 17 18 20 21 21 22 23 25 26 27 29 29 30 31 32 32 32 34 35 36 36
21 21 20 19 18 17 16 15 15 15 15 15 14 14 14 14 13 13 12 12 13 13 14 16 17 19 20 21 22 23 24 26 27 28 30 30 32 33 32 31 32 34 35 35
20 19 18 17 17 16 15 15 15 15 15 14 14 14 13 12 11 11 11 11 12 13 14 15 17 18 19 21 22 23 24 25 27 28 29 30 31 32 31 30 31 32 33 33

GEFSNGP_500_meanwind_180.txt.gz
Wind_Speed
44 43 44 45 45 45 46 46 48 48 48 46 45 44 44 44 43 42 41 39 37 37 36 35 33 32 31 29 28 27 27 27 28 30 31 32 34 36 37 38 40 41 42 44
46 45 45 45 44 44 45 46 47 48 47 46 45 44 44 43 42 41 40 38 36 36 35 34 32 30 29 29 27 27 26 25 26 27 29 30 32 34 35 36 37 40 41 41
47 46 47 46 44 44 45 46 46 47 47 46 44 43 42 42 41 40 39 38 36 35 34 33 31 29 28 27 28 26 25 25 26 26 27 29 30 33 35 36 36 38 40 40
49 48 48 46 45 45 46 46 46 47 45 44 44 43 42 41 40 39 38 37 36 35 33 32 30 29 27 27 27 26 26 25 26 27 27 28 30 33 34 35 37 39 40 40
49 50 50 46 45 46 47 46 45 45 44 44 44 42 40 40 40 39 38 37 35 34 32 31 30 29 28 28 26 25 25 25 25 27 28 29 30 32 33 35 36 37 39 39
48 49 50 46 46 45 47 46 44 44 44 43 43 42 38 39 38 38 37 36 35 34 32 31 30 29 27 26 26 24 23 24 25 26 27 28 28 30 32 35 36 36 38 38
47 48 48 46 45 45 46 46 44 44 43 43 42 41 40 39 38 38 37 37 35 34 33 31 30 29 27 25 24 24 23 23 24 25 26 28 29 30 32 34 35 34 36 37
46 47 46 44 44 45 46 46 45 44 43 43 42 40 39 38 38 38 38 37 36 34 32 31 29 27 26 25 24 22 22 22 24 25 25 27 29 30 32 34 35 35 36 35
45 45 44 44 45 45 45 46 45 44 43 42 41 40 39 38 38 38 37 36 35 33 31 30 29 27 26 25 24 22 21 21 22 23 26 26 27 30 31 32 35 37 35 34
46 44 44 44 44 44 44 45 44 43 41 40 40 39 38 38 38 37 36 35 33 32 30 29 27 26 25 24 24 23 21 21 21 23 24 27 28 30 31 32 33 35 35 35
46 43 43 43 43 43 44 43 42 41 40 40 39 38 38 37 36 35 35 34 33 31 29 28 26 26 25 24 24 23 22 21 22 23 24 26 27 29 31 32 34 34 34 35
44 42 43 42 42 42 42 41 40 39 39 39 38 37 36 35 34 34 34 33 32 30 28 26 26 25 25 25 24 23 22 22 22 23 24 25 27 28 30 32 34 34 35 36
43 42 42 41 40 40 40 39 39 37 37 36 36 35 34 33 33 33 32 32 31 29 27 26 25 25 25 24 24 23 22 23 23 23 23 24 27 28 30 33 34 35 35 36
41 41 40 39 39 38 38 37 36 35 35 35 34 34 33 32 32 32 31 30 29 28 26 25 25 24 24 23 23 23 23 24 24 24 24 24 26 28 30 33 34 35 35 35
39 39 38 37 36 36 36 35 34 33 33 33 33 32 31 31 31 31 30 29 28 27 25 24 23 23 23 22 21 22 22 23 23 24 25 26 28 28 30 32 34 35 36 36
35 36 35 35 35 35 34 33 33 32 32 32 31 31 31 31 30 29 29 28 27 25 24 22 21 21 21 21 22 23 23 24 24 24 24 26 28 29 31 32 34 35 36 36
33 33 33 33 33 33 32 32 31 31 31 31 30 30 29 29 29 29 27 26 25 23 21 19 19 19 19 20 21 21 23 24 24 25 25 26 27 29 30 32 34 34 35 35
31 32 32 32 32 31 30 29 29 29 30 30 29 29 29 28 27 27 25 24 22 20 18 17 17 17 18 18 18 19 20 22 24 25 26 27 28 28 29 31 33 33 33 34
29 30 29 29 29 29 28 27 28 28 28 28 27 27 27 26 25 23 22 21 20 18 17 17 16 16 16 16 17 17 19 21 23 24 26 27 28 29 30 30 31 31 31 33
28 28 27 27 27 26 26 26 26 27 26 25 25 25 24 24 23 22 22 21 19 18 17 16 16 17 17 16 17 18 19 21 22 24 26 27 28 29 31 31 31 30 31 33
25 25 25 25 25 25 25 25 25 25 24 24 24 24 24 23 22 21 21 20 18 17 16 16 16 17 17 18 18 19 20 21 23 24 26 27 29 30 31 31 30 30 31 32
24 24 24 24 23 23 24 24 24 24 23 23 23 23 23 22 21 20 19 18 17 16 15 15 16 17 18 18 18 19 20 21 23 24 26 28 30 31 31 31 31 31 31 32
23 23 23 23 22 22 23 23 23 23 23 23 23 22 22 20 20 18 17 16 15 15 15 15 16 17 17 18 19 19 20 21 23 25 27 28 30 30 30 31 31 30 31 32
22 22 22 22 21 21 22 22 22 22 22 22 21 20 19 18 18 17 16 16 15 14 14 14 15 16 16 17 18 19 19 21 23 25 27 28 29 29 30 30 30 30 31 32
21 21 20 21 20 21 21 21 21 20 20 19 19 18 18 17 17 16 15 14 14 14 14 14 15 16 17 17 18 19 19 21 23 25 27 28 28 29 30 31 31 31 31 31
20 20 19 20 20 21 20 20 19 18 18 18 17 17 16 15 14 14 13 13 13 13 13 14 15 15 17 18 18 19 19 21 23 24 26 27 27 28 30 31 32 31 30 30
19 19 19 19 20 20 19 18 18 17 17 17 17 16 15 14 14 13 13 13 12 12 13 13 14 15 16 17 18 19 20 21 22 24 25 25 27 28 28 30 30 30 30 30

GEFSNGP_500_meanwind_186.txt.gz
Wind_Speed
42 42 42 42 41 42 43 44 46 45 45 44 45 46 47 47 48 48 48 47 47 46 45 43 42 40 39 38 37 36 36 34 34 33 32 32 31 31 32 35 36 35 38 41
43 42 43 43 42 43 44 44 45 46 45 44 46 47 47 48 48 48 47 47 46 45 44 42 41 39 38 38 36 36 35 33 32 30 30 29 29 29 31 33 34 34 36 37
44 43 45 45 42 43 44 44 45 46 45 45 46 47 48 48 48 47 47 46 45 44 42 40 39 38 37 36 35 35 34 32 30 28 28 27 27 28 29 31 32 32 35 36
46 46 47 45 43 44 44 44 45 45 45 46 46 47 47 47 47 47 46 44 43 42 40 39 37 36 35 35 34 34 33 31 29 27 27 26 26 26 27 29 30 31 33 35
47 48 49 45 43 43 44 44 44 45 45 45 46 46 45 46 46 45 44 43 41 41 39 37 35 34 34 34 34 33 31 29 27 27 27 25 24 24 25 27 29 30 31 32
45 46 47 44 43 44 46 46 44 45 45 46 46 46 44 44 45 43 43 41 40 39 37 35 34 33 33 33 33 32 29 28 27 27 26 24 23 23 23 24 26 28 28 30
44 46 46 43 42 43 45 45 45 45 45 46 46 45 44 44 43 42 41 40 39 37 36 34 33 32 32 32 31 30 28 28 26 25 23 22 22 22 22 23 24 26 28 29
44 45 44 41 42 43 44 44 44 44 44 44 43 43 42 41 41 40 39 38 37 35 34 33 32 31 31 31 30 28 27 25 24 23 22 21 21 21 21 21 23 25 27 30
44 43 42 42 43 43 43 43 43 43 42 42 41 41 40 40 39 39 38 37 36 34 33 32 31 30 30 29 28 27 26 24 22 20 20 19 20 21 20 20 22 25 28 30
42 40 40 41 41 41 42 42 42 42 41 40 40 39 39 39 39 38 37 36 34 33 32 31 30 29 28 27 27 26 23 22 21 19 18 18 20 21 21 22 23 26 29 31
42 40 41 40 41 41 42 42 42 42 41 40 40 39 38 38 38 37 35 34 33 31 30 29 29 28 27 26 25 23 21 20 19 18 17 17 18 21 21 22 23 24 27 31
41 40 42 40 40 42 42 42 41 41 39 39 39 38 37 37 36 35 34 33 32 31 30 29 28 27 26 25 24 22 20 18 18 18 17 17 17 19 22 22 24 25 26 29
41 42 42 41 41 41 41 40 39 38 37 37 37 36 36 36 34 33 32 31 31 30 28 27 25 24 24 24 23 21 19 18 17 17 17 17 17 19 21 23 24 25 26 28
40 41 40 40 39 39 38 37 37 36 36 36 35 35 34 33 32 31 30 29 28 28 27 26 24 23 23 23 22 20 19 18 17 17 17 18 18 20 21 22 23 25 26 28
38 38 38 38 37 37 36 35 35 34 34 33 33 32 32 31 29 28 27 27 26 25 24 23 23 22 22 22 21 19 19 18 17 17 17 17 18 20 21 21 23 25 27 28
35 36 36 36 35 35 34 34 33 32 31 31 31 31 30 28 27 26 26 25 25 24 23 22 22 21 21 20 19 18 18 17 17 16 17 19 19 20 21 22 24 26 28 29
32 32 32 32 32 32 33 32 31 30 30 30 30 29 27 26 26 25 25 25 24 23 22 21 21 21 20 19 18 17 16 15 16 16 17 19 21 22 23 24 25 27 28 29
30 29 29 29 29 29 29 29 29 29 28 28 26 26 26 25 25 25 25 25 24 23 22 20 19 18 18 17 16 15 14 14 14 14 17 19 21 22 22 23 25 27 28 28
25 25 26 26 27 27 26 26 27 26 26 25 25 24 24 24 23 24 24 24 23 22 21 19 18 17 16 15 15 14 13 12 13 15 16 18 20 21 22 23 25 26 27 28
23 24 24 24 24 23 23 24 24 23 23 23 22 22 23 23 23 23 23 22 22 21 20 18 17 16 15 15 15 14 13 13 12 14 16 18 19 20 21 23 25 25 26 27
22 22 22 22 22 22 22 22 21 21 21 22 22 22 22 23 23 22 21 21 20 19 18 17 16 15 15 15 14 14 14 14 14 15 16 18 19 20 22 23 25 25 26 27
21 21 21 21 21 21 20 20 20 20 20 21 21 22 22 22 21 20 20 19 18 17 16 15 14 14 14 14 14 14 15 15 15 15 17 18 20 22 23 24 25 25 26 27
18 19 20 20 19 19 19 19 19 19 20 20 20 20 20 20 20 19 19 17 16 15 15 14 13 13 13 13 14 14 15 15 15 16 18 19 21 23 24 25 26 26 26 26
18 18 18 18 18 18 18 18 18 19 19 20 19 19 19 19 19 18 17 16 15 14 13 13 13 13 13 13 13 14 15 16 17 17 19 20 22 23 24 26 27 27 26 26
17 17 16 16 17 17 17 17 18 18 19 19 19 18 18 17 17 16 16 15 14 13 13 12 12 12 13 13 13 14 16 16 17 18 19 20 22 24 25 26 27 26 25 25
16 15 15 16 16 16 16 17 18 18 18 18 17 17 16 16 15 15 14 14 13 13 12 11 11 12 12 13 14 15 16 17 18 18 19 21 23 24 25 26 27 27 26 25
14 14 15 15 15 15 16 17 17 16 16 16 16 15 15 14 14 13 13 13 12 11 11 10 11 12 12 13 14 15 16 18 19 20 21 22 23 24 26 27 27 27 26 25

GEFSNGP_500_meanwind_192.txt.gz
Wind_Speed
45 45 46 46 44 44 45 45 46 45 44 43 44 45 47 48 49 50 51 51 52 52 52 52 51 50 49 48 47 47 46 45 44 43 43 43 42 41 42 42 41 40 41 41
47 46 47 47 46 46 45 45 46 46 45 43 44 46 47 49 50 51 51 51 52 52 52 51 51 50 48 46 45 45 45 44 43 42 42 42 41 40 40 39 38 37 37 37
48 47 48 48 44 45 46 45 45 46 45 44 45 46 47 49 50 50 51 51 51 51 51 50 50 49 47 45 44 43 43 42 41 41 41 41 39 38 37 36 33 32 32 32
47 46 48 46 43 44 45 44 45 45 44 45 46 47 48 49 49 50 50 50 50 50 49 49 48 47 46 45 44 43 41 39 39 39 39 38 36 34 34 33 31 29 29 29
45 46 47 43 41 42 44 44 43 44 45 45 46 47 47 48 49 49 49 48 49 48 48 48 47 46 44 43 43 42 40 39 38 37 36 35 34 33 32 31 29 28 27 26
43 45 46 42 41 41 43 44 41 43 44 45 46 47 46 47 48 48 48 47 47 47 47 47 46 44 43 42 41 40 39 38 37 35 34 33 32 31 28 27 26 25 25 24
44 46 46 43 43 43 44 44 44 44 45 45 45 46 46 46 47 47 47 47 46 47 46 45 44 42 40 39 38 36 36 35 34 33 31 30 29 27 26 25 24 24 22 21
44 45 44 43 44 44 45 45 45 46 45 45 45 45 45 46 46 46 46 45 45 45 44 43 41 39 37 35 34 33 33 32 32 31 30 29 27 24 22 22 22 21 20 18
43 43 42 42 44 44 44 44 45 45 44 44 44 45 46 46 46 45 45 45 44 44 43 41 39 37 35 33 32 31 31 30 29 29 28 27 26 23 20 19 18 17 17 16
41 40 40 41 42 42 42 43 43 43 43 43 44 45 45 45 44 44 43 43 42 42 40 38 36 35 33 31 30 30 28 28 27 27 26 24 23 21 19 17 16 15 15 16
39 38 40 41 41 41 41 42 42 42 42 43 44 44 44 42 42 41 40 41 40 39 37 35 33 32 31 30 28 28 27 25 24 25 24 23 21 19 17 16 14 14 15 16
39 38 40 40 41 41 41 42 42 42 42 43 43 43 42 41 40 40 39 39 38 37 35 33 32 30 29 28 27 26 25 23 22 22 21 19 17 15 15 15 15 14 14 15
39 40 41 41 41 41 41 41 41 41 41 41 41 41 40 39 39 38 37 36 36 35 34 31 30 28 27 27 27 26 24 22 21 20 19 17 15 14 14 14 15 14 14 14
39 40 40 40 39 39 39 39 39 39 39 39 38 38 38 37 36 36 35 35 34 33 32 30 28 28 27 27 26 24 23 21 20 19 18 17 14 14 13 13 13 13 13 14
37 38 38 37 37 37 38 38 38 38 37 37 37 37 36 35 35 34 34 33 32 31 30 28 27 27 26 25 24 23 21 19 18 17 17 16 14 13 12 11 11 11 12 13
35 35 34 34 34 35 35 35 35 35 35 35 35 35 34 34 33 33 33 32 30 29 28 27 26 25 24 23 21 20 19 18 16 16 15 14 13 11 10 10 10 11 13 13
34 33 33 33 34 34 34 34 33 33 32 32 32 32 32 32 31 30 30 29 27 26 26 25 24 22 21 20 19 17 16 15 15 14 14 13 12 11 10 10 11 13 14 15
32 33 33 34 33 33 33 32 31 30 30 29 30 30 30 29 29 28 27 26 25 24 24 23 22 21 20 18 16 15 14 13 13 13 13 12 11 10 10 10 10 12 15 17
29 30 30 30 30 30 30 30 30 29 29 28 28 28 28 27 26 26 26 24 23 23 22 21 20 20 18 17 15 14 13 13 12 11 10 9 8 9 9 10 11 12 14 16
26 27 27 27 28 28 28 28 27 27 27 27 26 25 25 25 26 25 24 23 22 22 21 20 19 19 18 17 15 14 14 13 12 11 10 9 8 9 9 10 10 11 14 16
24 24 24 24 24 24 25 25 24 25 25 25 25 25 25 25 24 24 23 22 22 22 21 20 19 18 17 15 14 13 13 12 11 10 9 9 9 10 10 11 12 14 16 17
22 22 22 22 22 22 22 23 23 23 23 23 24 24 23 23 22 22 22 21 21 20 19 19 18 17 15 14 14 13 12 12 11 10 9 9 10 11 11 13 14 15 16 17
21 21 21 21 22 22 22 22 23 23 23 23 22 22 21 21 21 21 20 20 20 19 18 18 17 15 14 13 13 12 12 11 11 11 10 10 11 12 13 15 16 17 17 17
20 20 20 20 20 20 20 20 20 21 21 20 20 19 19 19 19 19 19 18 18 17 16 15 14 13 13 13 12 12 12 11 11 11 11 11 12 13 14 16 17 17 17 17
18 18 18 18 18 18 18 18 18 18 18 17 17 17 17 17 18 18 17 17 16 16 15 14 13 12 12 11 11 11 11 11 11 12 12 12 13 13 14 16 17 17 17 17
19 18 18 17 17 16 16 16 16 16 15 15 15 15 16 16 16 16 16 15 14 13 13 13 12 11 11 11 10 10 10 11 11 13 14 14 15 15 15 16 17 17 17 18
18 18 17 16 15 15 15 15 15 14 14 15 15 15 15 15 15 14 14 13 12 12 12 11 11 11 11 10 10 10 11 11 12 14 15 16 16 16 16 17 18 17 17 17

GEFSNGP_500_meanwind_198.txt.gz
Wind_Speed
42 42 42 43 42 43 44 44 45 43 42 40 41 42 42 43 44 43 44 44 45 45 46 47 48 49 50 50 50 50 49 48 48 48 49 48 48 47 47 46 46 46 45 45
42 42 43 44 43 43 43 43 44 43 41 39 41 42 42 43 44 44 44 45 46 46 46 47 48 49 49 49 49 49 48 48 47 48 49 48 47 47 47 45 45 43 42 41
43 42 43 44 41 41 42 42 42 42 41 40 41 41 42 43 43 44 44 45 46 46 47 47 48 48 49 49 49 49 48 47 47 48 48 47 45 45 45 44 43 41 40 39
44 44 45 41 39 40 41 41 41 41 41 42 42 42 43 43 43 44 45 45 46 46 46 47 48 48 48 48 48 48 47 47 46 47 46 44 43 42 42 41 40 40 39 37
43 44 44 41 40 40 41 41 40 41 41 42 43 44 44 44 44 44 45 45 46 46 47 48 48 48 47 47 47 47 47 46 45 45 44 42 41 40 39 38 38 37 36 35
40 41 41 39 40 41 43 42 40 40 40 40 41 42 41 42 43 44 44 45 45 46 47 48 48 47 47 46 46 45 44 44 44 42 41 40 38 37 35 34 34 33 33 32
39 39 39 36 38 40 42 42 41 41 41 41 41 42 42 42 43 44 45 45 46 46 47 47 47 47 46 45 44 43 42 41 40 39 38 37 36 34 33 32 31 30 29 27
38 39 37 36 37 39 41 42 42 41 41 41 41 42 42 43 43 43 44 44 44 45 46 46 46 45 45 44 43 41 39 38 37 37 36 35 34 32 31 30 28 26 25 23
37 36 35 36 37 38 39 40 40 40 40 41 41 42 43 43 43 43 43 43 43 43 44 44 44 44 43 42 41 39 38 36 35 34 34 33 31 30 29 26 24 22 21 19
36 36 36 36 36 37 38 39 40 40 40 40 40 40 40 40 40 41 42 42 42 42 43 43 42 42 41 39 37 36 35 34 33 32 30 30 28 27 26 24 21 19 18 17
35 34 35 35 36 37 38 38 38 38 38 39 39 39 39 39 39 40 40 41 41 42 41 41 40 39 37 35 34 33 32 30 30 28 26 25 24 23 22 19 18 16 15 14
33 33 35 35 35 35 37 37 37 38 38 38 39 39 39 39 39 39 40 40 41 41 39 39 38 36 34 32 31 30 29 28 26 25 23 21 20 20 20 18 17 15 14 12
35 35 36 35 35 35 35 35 36 37 37 38 38 38 38 38 38 39 40 40 39 38 36 35 34 32 30 29 28 28 27 25 23 22 21 20 18 17 16 16 16 14 13 12
36 36 36 35 34 34 34 34 35 36 36 36 37 37 37 37 37 37 37 36 35 34 33 32 31 30 29 27 26 25 24 22 20 19 18 17 17 16 16 15 13 12 10 9
34 35 34 34 33 33 32 33 34 34 34 34 34 34 34 33 33 33 33 33 32 31 31 31 31 29 27 25 24 23 21 20 19 18 17 16 16 15 14 13 11 10 9 8
31 32 32 32 32 32 32 32 32 32 31 31 31 31 31 31 30 30 30 30 30 30 30 29 28 26 25 23 22 20 19 18 17 16 16 15 15 14 13 12 11 9 8 7
27 28 29 29 29 30 30 30 30 29 29 29 28 28 29 29 29 29 29 29 29 28 27 26 25 23 22 21 20 17 16 15 15 15 14 13 13 13 12 11 9 8 8 8
26 26 27 27 28 28 28 28 29 29 29 28 28 27 28 29 29 28 28 28 27 26 24 23 23 21 20 19 17 16 15 14 13 13 13 12 12 11 10 9 8 8 8 8
24 24 25 26 26 27 27 27 27 28 28 27 27 27 27 27 26 26 26 25 24 23 22 21 20 19 18 18 17 15 14 13 12 11 11 11 10 9 8 8 8 8 9 10
22 22 23 23 23 24 25 25 26 26 26 26 26 25 25 24 24 24 23 23 21 20 20 19 19 18 17 16 15 13 13 12 11 10 10 9 8 7 6 7 8 9 10 11
21 21 21 21 21 22 23 24 24 24 24 24 24 24 24 23 23 23 22 21 20 19 19 18 18 17 16 15 13 12 11 10 9 9 8 7 6 6 6 8 9 10 11 12
19 20 20 20 21 21 22 22 23 23 23 23 23 22 22 21 22 21 21 20 20 19 18 17 16 15 14 14 13 12 12 11 9 9 8 7 6 6 7 8 9 11 12 13
18 18 18 18 19 20 21 21 21 21 20 20 20 20 20 20 20 20 20 19 18 17 16 16 15 14 13 12 12 11 11 10 9 8 8 7 7 7 8 9 11 12 13 14
17 17 18 18 19 19 20 20 20 19 18 18 18 19 19 19 19 18 18 17 17 16 15 14 14 13 12 11 11 11 10 10 9 8 7 7 7 9 10 11 12 13 13 14
17 17 17 17 18 18 18 18 18 17 17 17 17 17 16 16 16 16 15 15 15 14 14 13 13 12 11 10 10 10 10 9 9 8 7 7 8 9 11 12 13 13 14 15
16 16 16 16 16 16 16 15 15 14 14 14 14 14 13 13 13 13 13 13 13 13 13 12 11 10 10 9 9 10 10 9 9 8 7 8 9 10 11 13 14 14 15 16
15 15 15 15 15 15 15 14 14 13 13 13 13 13 12 12 12 12 12 12 12 11 11 10 10 10 9 9 9 10 10 10 9 9 8 9 10 11 12 13 14 15 16 17

GEFSNGP_500_meanwind_204.txt.gz
Wind_Speed
44 44 44 44 44 44 45 44 44 43 42 41 42 43 43 44 44 44 43 44 44 44 44 45 46 47 48 49 49 50 50 51 51 51 52 52 52 52 53 52 52 52 53 53
44 43 44 44 43 44 44 44 44 44 43 41 43 44 44 45 45 45 44 44 44 45 45 46 47 47 48 49 49 50 50 50 51 51 51 51 52 52 52 52 52 52 52 53
45 45 45 45 42 43 43 43 43 44 41 41 43 44 45 45 45 45 45 45 46 46 46 47 47 48 49 49 49 49 49 50 50 50 50 50 51 52 51 51 51 51 52 52
43 44 46 43 42 42 42 42 42 42 41 41 42 43 43 44 44 44 45 45 45 46 46 47 47 48 48 48 49 49 49 49 49 49 49 50 51 51 51 51 50 50 49 49
41 42 43 42 41 41 41 40 40 40 40 40 41 41 41 41 42 43 44 44 45 46 46 46 47 47 47 47 48 48 48 48 48 48 49 50 50 50 50 49 48 47 46 44
40 41 41 39 41 41 41 41 39 39 39 40 40 40 40 40 41 42 43 43 44 45 45 46 46 46 46 47 47 47 47 47 47 48 49 49 49 48 48 47 45 43 42 41
37 38 38 38 38 39 40 40 39 39 39 39 39 40 40 40 41 41 41 42 43 44 45 45 46 45 45 46 47 46 47 47 47 47 48 48 48 47 45 44 42 41 39 38
35 36 35 36 37 38 38 38 38 38 38 38 39 39 40 40 41 41 41 42 43 43 44 44 45 45 45 46 46 47 47 47 47 48 48 47 46 45 43 41 40 38 37 35
32 32 33 34 35 36 36 36 37 38 38 39 40 40 41 41 41 41 42 42 43 43 43 43 44 45 46 46 46 46 47 47 47 46 45 44 42 40 39 38 37 35 33 31
31 31 32 33 34 35 36 36 36 37 38 38 39 40 40 41 41 42 42 43 43 44 44 44 44 45 45 45 46 46 45 45 44 42 41 40 39 38 37 36 33 31 29 27
33 33 34 34 35 35 35 35 35 35 36 36 37 37 38 39 40 41 41 42 43 43 43 43 44 44 44 44 44 43 43 42 40 39 38 37 36 35 34 32 30 27 25 23
30 31 33 32 33 34 35 35 35 35 35 36 36 36 36 37 38 38 39 40 41 41 41 42 43 43 43 43 43 41 39 38 36 35 33 32 30 29 29 28 27 24 23 21
31 31 31 32 33 33 34 34 34 34 34 34 35 35 36 36 37 37 38 39 39 39 40 41 40 40 40 40 38 36 34 33 31 30 29 27 26 26 25 24 24 22 20 18
30 31 31 32 33 33 33 32 33 33 34 34 35 35 36 36 36 37 37 37 38 38 38 38 37 37 36 35 33 32 30 29 28 27 26 24 24 23 23 21 19 19 16 14
28 28 29 30 31 31 32 32 32 32 33 33 34 34 35 35 36 36 35 36 35 36 36 35 34 33 32 30 28 27 26 26 25 24 23 22 21 20 20 19 17 15 13 13
26 27 27 27 28 28 29 30 31 31 31 31 32 32 33 33 33 32 32 31 31 32 32 31 30 29 28 26 25 24 24 23 22 21 20 19 18 17 17 16 15 13 12 10
25 25 26 26 27 28 28 28 29 29 30 30 31 31 31 30 30 29 28 29 29 28 28 27 27 26 26 25 23 22 21 21 20 19 18 17 16 15 13 13 12 11 10 9
24 24 24 24 25 25 26 26 27 27 27 28 28 28 28 28 28 27 27 27 27 26 26 26 25 25 24 23 22 21 20 20 19 17 16 15 14 13 12 11 10 10 9 8
23 23 23 24 24 25 26 26 26 26 26 27 27 27 27 26 26 26 26 26 26 25 25 25 24 23 22 21 21 20 19 18 18 17 15 13 12 12 11 10 9 8 8 7
22 21 22 22 23 24 24 24 24 24 24 24 24 24 24 24 24 25 25 25 25 24 24 23 22 20 20 20 19 19 18 17 17 16 14 12 12 11 11 10 9 8 7 6
21 22 22 22 22 22 22 22 22 22 22 23 23 23 23 23 23 23 23 24 24 23 23 22 21 19 18 18 17 16 15 15 15 14 12 11 11 10 10 8 7 6 6 5
20 20 21 21 22 22 22 21 21 21 22 22 22 22 22 22 22 22 23 23 22 21 20 20 19 17 16 15 14 14 14 13 12 11 10 9 9 8 7 6 6 5 5 5
18 19 19 20 20 21 21 21 21 21 22 22 22 22 22 21 21 21 21 20 20 19 18 17 16 15 14 13 13 12 12 11 10 10 10 9 8 7 6 6 6 5 5 5
17 18 19 19 19 20 20 20 21 21 21 21 21 20 20 20 20 20 19 18 17 17 16 15 14 13 13 12 11 11 10 10 10 10 10 9 8 7 7 7 7 7 6 6
17 18 18 18 19 19 19 19 19 19 19 18 18 18 18 18 18 17 16 16 15 15 14 14 13 12 12 11 10 10 10 10 9 9 9 9 8 8 8 8 8 8 7 7
17 17 17 17 17 17 17 17 17 17 17 17 17 17 16 16 16 15 15 15 15 14 14 13 12 12 11 11 10 10 9 9 9 9 9 9 9 9 9 9 9 8 7 7
15 16 16 16 16 17 17 17 17 17 17 17 16 16 15 15 15 14 14 14 14 13 13 12 12 11 11 10 10 10 9 9 9 8 9 9 10 10 10 10 10 9 8 8

GEFSNGP_500_meanwind_210.txt.gz
Wind_Speed
42 43 42 42 42 41 41 41 42 41 41 40 40 40 40 41 41 41 41 41 41 41 41 41 42 42 43 44 45 46 47 47 47 48 49 49 49 51 52 52 53 53 54 55
40 41 42 42 41 41 41 41 41 41 40 38 39 39 39 40 40 41 41 41 41 41 41 42 42 43 43 44 45 46 46 47 47 48 49 49 50 51 52 52 52 53 54 54
40 40 40 41 40 40 40 39 39 39 39 39 39 39 40 40 40 41 41 41 41 41 41 42 43 43 44 44 45 46 46 46 47 48 48 49 50 51 51 51 51 52 53 53
39 40 41 40 39 39 39 39 39 39 39 39 39 39 39 39 39 40 40 41 41 41 41 42 42 43 44 44 44 45 45 46 47 47 48 48 49 50 50 50 51 51 51 51
36 38 39 38 38 37 37 38 38 38 39 39 39 39 39 39 39 39 39 40 40 41 41 42 42 42 43 43 43 44 44 45 46 47 47 47 48 48 49 49 49 49 49 48
34 35 36 35 36 36 36 37 36 37 37 38 38 38 38 38 38 38 39 39 39 40 40 41 42 42 42 43 43 43 44 45 45 46 46 46 47 47 48 47 48 48 46 45
30 32 32 32 33 34 35 35 35 36 36 37 37 37 37 37 38 38 38 38 39 39 40 40 41 42 42 42 42 42 43 44 44 45 45 45 46 46 46 45 44 43 42 42
29 30 28 29 30 31 31 31 32 33 34 35 35 36 36 37 37 37 37 37 38 38 39 39 40 40 40 41 41 42 43 43 44 44 45 45 45 44 44 43 41 40 40 39
28 28 27 27 28 29 29 29 30 31 32 32 33 34 35 36 36 37 37 37 37 38 38 38 38 38 39 40 41 42 43 43 43 44 44 44 44 43 42 41 39 39 39 38
28 28 28 27 27 28 29 29 30 30 30 31 32 33 34 35 35 36 36 36 37 37 37 37 37 38 39 40 40 41 41 42 43 43 43 43 42 41 40 39 38 37 36 35
26 27 27 27 28 28 28 29 30 30 30 31 32 32 33 34 34 35 35 35 36 37 37 37 38 39 39 40 40 41 41 42 43 43 42 41 40 40 39 37 36 34 33 32
24 25 26 26 27 27 28 29 30 30 31 31 32 32 33 33 33 33 34 35 36 37 37 38 38 39 39 39 40 40 41 42 42 41 40 39 38 37 36 34 32 31 30 28
23 23 24 25 26 26 26 26 27 28 29 30 31 32 32 32 32 33 34 34 35 35 35 36 36 36 37 37 38 38 39 39 38 37 36 35 34 33 32 31 30 28 26 24
23 23 24 24 25 26 26 26 26 26 27 28 28 29 29 30 31 32 33 33 34 34 34 34 35 35 35 35 36 36 36 35 33 32 31 31 31 30 28 28 27 25 24 22
22 24 24 24 24 25 26 26 26 26 26 27 27 28 28 28 29 30 30 31 32 32 31 32 32 32 32 32 32 32 32 31 30 28 27 26 26 25 24 24 23 22 20 18
22 23 23 23 23 23 24 24 25 25 25 26 26 27 27 28 28 29 29 29 29 29 29 29 29 29 30 29 29 30 29 28 27 25 23 22 22 21 21 20 19 17 16 15
21 22 22 22 22 22 22 23 23 23 24 24 25 26 26 27 27 28 28 27 27 27 27 27 27 27 26 26 26 26 26 25 24 22 20 20 19 18 18 16 15 14 13 12
18 19 20 21 21 22 22 21 21 22 22 23 24 24 24 24 25 25 25 25 25 25 25 25 25 24 24 23 23 23 22 21 20 19 18 17 16 15 15 14 13 12 11 11
17 17 18 18 19 20 20 21 21 21 22 22 22 22 23 23 23 23 23 23 23 23 23 22 22 22 21 21 21 20 20 19 18 16 15 14 14 14 13 12 11 11 10 10
17 17 17 17 17 18 18 19 19 20 20 20 20 21 21 21 21 22 22 21 21 21 20 20 19 19 19 19 19 19 18 17 16 15 14 13 12 12 11 11 10 10 9 9
16 16 16 17 17 17 17 18 18 18 18 19 19 20 20 20 20 20 20 20 19 18 18 18 18 18 18 17 17 17 17 16 15 14 13 13 12 11 10 10 9 8 8 7
16 16 17 17 18 18 18 18 18 18 19 19 19 20 20 20 19 19 19 19 18 17 17 17 17 17 17 17 17 16 15 15 14 13 13 12 11 10 9 9 8 8 7 7
15 16 16 16 17 17 17 18 18 18 19 19 20 20 19 19 19 19 19 18 18 18 17 18 17 17 16 16 15 14 14 13 12 12 12 11 10 10 9 8 7 7 7 7
14 14 15 15 15 16 16 17 18 19 19 19 19 19 19 19 18 18 18 18 17 17 17 17 17 16 15 14 13 12 12 11 11 11 10 10 9 9 8 7 7 7 7 7
14 14 14 14 15 15 16 17 18 18 18 19 19 19 19 18 18 18 17 17 17 17 17 16 16 15 14 12 12 11 10 10 10 9 9 9 9 8 8 7 7 7 7 7
13 14 14 14 14 15 16 16 16 16 17 17 17 17 17 17 17 17 17 16 16 16 16 16 15 14 13 12 12 11 10 10 10 9 9 9 8 8 8 8 7 8 8 8
14 14 13 14 14 15 15 15 15 16 16 15 15 15 16 16 16 16 16 16 16 16 15 15 14 13 12 11 11 10 10 10 10 9 9 9 9 9 8 8 8 8 8 8

GEFSNGP_500_meanwind_216.txt.gz
Wind_Speed
41 40 41 42 43 43 44 45 44 43 42 42 42 41 40 39 39 39 39 39 40 40 40 40 40 40 40 41 41 41 42 43 44 45 45 46 47 48 48 50 51 52 53 53
42 40 40 42 42 43 44 45 44 44 43 42 42 43 42 40 39 39 39 39 39 39 40 41 41 41 42 42 42 42 43 44 44 45 46 46 47 48 49 50 51 51 52 52
40 40 40 41 41 41 42 43 43 44 42 41 42 42 41 40 40 40 40 39 39 39 40 41 42 42 42 42 43 43 44 44 44 45 46 46 47 48 48 49 49 49 49 50
37 38 39 40 39 39 39 39 41 42 42 42 42 42 41 41 40 40 40 40 40 40 40 41 42 43 43 43 44 44 44 44 45 45 45 46 46 47 47 47 48 48 48 49
34 35 37 38 37 38 39 38 38 39 40 41 41 41 40 39 39 39 39 39 40 40 40 41 42 42 42 43 43 43 44 44 44 44 44 45 45 46 46 46 46 46 46 47
33 33 33 33 33 36 38 39 38 38 38 39 39 39 38 38 39 39 39 38 38 38 39 40 40 40 41 42 42 43 43 43 43 43 44 44 45 45 45 45 45 45 46 45
31 31 31 30 30 32 34 35 35 36 37 37 38 38 37 37 37 37 38 38 38 38 39 39 39 39 40 41 41 42 42 42 42 43 43 43 43 43 44 44 44 44 44 44
29 29 29 28 29 30 31 31 32 33 34 35 36 36 36 36 36 36 36 37 37 38 38 38 38 39 39 39 40 41 41 41 42 42 42 42 43 43 43 44 43 43 43 42
26 26 25 26 28 28 29 29 30 31 32 33 34 34 34 35 35 36 37 37 37 37 37 38 38 38 38 39 40 40 41 41 41 41 41 42 42 43 43 43 42 42 41 41
24 23 23 24 25 27 28 28 28 29 30 31 32 33 33 33 34 35 35 35 36 36 37 37 37 38 38 38 39 39 40 40 40 41 41 41 42 43 42 42 41 41 40 39
22 23 23 23 24 25 26 27 28 28 29 29 30 31 32 32 33 33 34 35 35 35 36 36 36 37 37 37 37 38 38 38 39 39 40 41 41 41 41 41 40 39 39 39
21 21 22 23 24 25 25 26 27 28 29 30 30 30 31 32 32 32 33 33 34 35 35 36 36 37 37 37 37 37 37 38 38 39 39 40 41 40 39 38 38 38 37 37
20 20 21 22 23 24 25 25 26 28 28 29 29 30 30 30 30 31 31 32 32 32 33 34 35 35 35 35 36 36 36 37 37 38 38 39 39 38 37 36 36 36 35 34
21 21 22 22 23 24 25 26 27 28 28 28 29 29 29 30 30 30 30 31 31 31 32 32 33 33 33 33 34 34 34 35 36 36 36 37 36 35 34 33 33 33 33 32
21 22 22 23 23 24 24 25 26 27 27 27 27 27 27 27 28 29 29 29 30 30 31 31 32 32 33 33 33 33 33 34 34 34 34 34 33 32 32 31 31 31 30 28
21 21 21 22 23 24 24 24 25 26 27 27 26 26 26 26 26 27 27 28 29 29 30 31 31 31 32 32 32 32 32 32 32 32 31 31 31 30 29 28 28 27 25 24
20 20 21 22 22 23 23 23 23 24 25 25 26 26 26 25 25 25 25 26 27 27 28 28 29 29 29 30 30 31 31 31 30 30 29 29 28 27 25 24 23 22 21 20
18 19 20 20 21 21 22 22 22 22 22 22 23 24 24 24 24 24 24 24 25 25 26 26 26 26 27 27 28 28 28 28 27 26 25 25 24 23 21 20 19 18 18 17
17 18 19 19 19 20 20 20 20 20 20 21 21 21 22 22 23 23 23 23 24 24 24 24 25 25 25 25 25 25 24 24 24 23 23 22 20 19 18 17 16 16 16 15
17 18 18 19 19 19 19 19 19 19 19 19 20 20 21 21 22 22 23 23 24 24 23 23 23 23 23 23 22 22 22 21 20 20 19 18 17 17 16 15 14 14 14 13
15 16 16 17 18 19 19 19 18 18 18 19 20 20 21 21 22 22 23 23 23 23 22 22 22 22 21 21 21 20 19 18 18 17 17 16 16 15 15 14 14 14 13 12
15 15 15 16 16 17 17 17 18 18 18 18 19 19 20 20 21 21 21 21 21 21 21 20 20 19 19 19 18 18 17 17 17 16 16 16 15 15 14 14 14 13 12 11
15 15 14 14 15 15 16 16 17 17 18 18 18 19 19 20 20 20 20 20 20 19 18 18 17 17 17 16 17 17 16 16 16 15 15 15 14 14 14 13 13 12 10 9
15 15 15 15 15 15 15 16 16 17 18 18 19 19 19 19 19 19 18 18 18 17 17 17 17 16 16 16 16 16 15 15 14 14 13 13 12 12 12 11 10 8 7 7
15 15 15 15 16 16 16 16 16 17 17 18 18 18 19 19 19 18 18 17 17 17 16 17 16 16 15 15 15 15 15 14 13 13 12 12 11 10 10 9 8 7 6 5
16 16 16 16 16 16 15 15 16 16 17 17 18 18 18 18 18 18 18 17 17 17 17 17 16 15 15 14 14 13 14 13 13 12 12 11 10 9 9 8 8 6 6 5
16 16 15 15 15 16 16 16 16 16 17 17 17 18 18 18 18 17 17 17 17 17 17 16 16 15 15 14 13 13 13 13 13 12 12 11 10 9 8 8 7 6 6 6

GEFSNGP_500_meanwind_222.txt.gz
Wind_Speed
33 34 35 37 39 40 41 42 43 41 40 39 38 37 36 36 35 35 34 34 35 35 36 37 37 37 36 37 38 38 39 40 40 40 40 41 41 43 44 44 44 46 46 46
33 34 35 37 37 37 39 40 41 42 41 39 39 38 37 36 36 36 35 35 35 36 36 37 37 37 37 37 38 39 40 40 41 41 41 42 42 43 43 44 45 45 45 45
33 32 34 35 35 35 37 38 39 40 39 38 39 38 37 36 36 35 36 35 35 35 36 37 38 38 38 39 39 40 40 40 41 41 42 42 42 42 43 44 44 44 44 44
31 31 33 33 33 35 35 36 37 37 37 37 37 37 37 36 36 35 36 36 35 35 35 36 36 37 38 39 40 40 41 41 42 42 42 42 42 42 43 43 43 44 43 43
29 29 31 31 32 32 34 34 35 36 37 37 37 38 37 37 37 37 37 36 36 35 35 36 36 37 38 38 38 39 40 41 41 41 41 41 42 41 41 42 42 43 43 43
30 29 29 29 29 30 32 34 35 35 36 36 37 38 37 37 37 37 37 36 36 37 37 37 37 37 37 37 38 38 39 40 40 39 40 40 40 40 40 40 41 41 42 43
28 29 28 27 28 28 30 31 32 33 34 35 35 36 36 37 37 37 36 36 36 36 36 37 37 37 37 37 38 38 38 39 38 38 38 38 38 38 39 39 39 40 41 41
26 27 27 26 26 27 27 27 30 31 32 33 33 34 35 35 35 35 35 35 35 35 35 35 35 36 36 36 36 36 37 37 37 37 37 37 37 37 38 39 39 39 40 40
23 24 23 24 25 25 26 27 27 29 31 32 32 32 32 32 33 32 33 33 33 33 33 33 34 34 34 35 35 35 35 35 35 36 36 36 36 37 38 38 39 40 40 40
19 20 21 23 24 25 26 26 27 28 29 30 30 30 31 32 33 33 33 33 33 33 33 33 33 32 33 33 33 33 34 34 35 36 36 36 36 37 38 38 39 40 39 39
18 19 20 22 22 23 23 24 24 25 26 27 29 30 30 31 31 32 32 32 33 33 33 33 33 33 32 32 33 33 34 34 34 35 35 36 37 37 38 38 38 38 38 38
16 17 19 20 21 21 22 23 24 24 26 26 27 28 28 29 30 31 31 32 32 32 32 32 32 32 32 33 33 34 34 34 34 35 35 36 36 37 37 37 38 38 38 38
15 16 17 18 20 20 21 22 23 24 24 25 26 27 28 29 29 30 30 30 30 31 32 32 32 32 33 34 34 34 34 34 34 35 36 36 37 38 38 38 38 39 38 37
14 15 16 17 18 19 20 21 22 23 23 24 25 26 26 27 28 28 29 29 29 30 30 31 31 32 32 33 33 34 34 35 35 35 36 36 37 37 37 37 37 37 36 35
14 15 16 17 18 19 19 20 21 22 23 24 25 25 26 27 27 27 27 27 27 28 28 29 30 30 31 31 32 33 34 34 34 35 35 35 36 35 35 35 34 34 33 32
14 15 16 17 18 19 19 19 20 21 22 23 24 25 25 26 26 26 26 26 27 27 28 28 29 30 30 30 31 32 32 33 33 33 33 34 34 34 33 33 31 31 30 28
14 14 15 16 18 19 19 19 19 20 20 21 22 23 24 24 24 25 25 25 26 27 27 28 28 28 29 29 30 30 30 30 30 31 31 31 31 31 30 29 28 28 27 26
14 14 15 15 16 18 19 19 20 20 20 20 21 22 23 23 23 23 24 24 25 26 26 27 27 27 27 27 27 27 28 28 29 29 29 29 29 28 27 27 26 26 24 24
14 14 15 15 16 17 17 18 19 20 20 20 20 20 21 21 22 22 22 23 23 24 24 25 25 26 26 27 27 27 27 27 28 28 28 27 26 26 25 24 24 23 22 21
13 13 14 15 15 16 16 17 18 19 19 19 18 18 19 19 20 20 21 22 22 23 24 24 25 25 25 25 26 26 26 26 26 26 25 24 23 22 22 21 21 20 19 17
12 13 14 14 15 16 16 16 17 17 18 18 18 18 18 18 18 19 19 20 21 22 23 24 24 24 24 25 25 25 25 25 24 23 22 21 21 20 19 18 17 16 16 15
12 13 13 14 14 15 15 15 16 16 17 17 18 18 18 18 18 18 19 20 20 21 21 22 22 22 23 23 23 23 22 22 21 20 19 19 18 18 17 16 15 14 14 13
13 13 13 13 14 14 14 14 14 15 15 16 17 18 18 18 18 18 18 19 19 19 19 20 20 20 20 20 19 19 19 18 17 16 16 15 15 15 14 14 13 13 13 13
12 12 12 13 13 13 13 13 14 14 14 15 15 16 17 17 17 18 18 18 18 18 18 18 18 17 17 17 16 16 15 15 14 14 13 13 12 12 12 11 12 12 12 12
12 12 12 12 12 12 13 13 13 14 14 14 14 15 16 16 16 16 16 16 16 16 16 15 15 15 15 15 14 14 14 13 13 12 12 11 11 10 10 10 10 10 10 10
12 12 12 12 13 13 13 13 14 14 15 15 15 15 15 16 16 16 16 15 15 15 15 15 15 14 14 14 14 13 13 12 12 11 10 10 9 9 9 9 8 8 7 7
12 12 12 13 13 13 14 14 14 14 14 14 15 15 15 15 15 15 15 15 14 14 14 14 13 13 13 13 13 12 12 11 11 11 10 10 9 9 8 7 6 6 5 5

GEFSNGP_500_meanwind_228.txt.gz
Wind_Speed
28 28 30 34 36 37 38 38 39 39 39 38 38 37 38 37 37 37 37 38 38 38 38 38 38 39 39 40 40 40 40 41 41 41 41 41 41 41 42 42 42 42 42 42
27 28 29 32 34 36 37 38 38 39 38 37 37 37 37 37 37 37 36 37 37 38 38 38 38 38 38 38 39 39 39 40 40 40 40 41 41 40 40 41 41 41 41 42
28 28 29 31 32 34 35 35 36 37 36 35 36 35 36 36 36 37 36 36 37 37 39 39 39 38 38 38 38 38 38 39 39 39 39 39 39 40 40 40 40 40 40 41
27 27 27 27 29 32 35 34 35 35 35 35 35 35 35 35 35 36 36 36 36 37 37 38 39 39 39 39 39 39 39 39 39 39 39 38 38 38 38 39 39 39 40 41
27 28 26 25 26 29 32 34 33 34 34 35 35 35 34 34 35 35 36 36 36 36 37 37 37 37 38 38 38 39 39 39 39 38 38 38 38 38 39 39 39 40 40 41
26 27 27 25 25 27 28 30 32 33 33 33 34 34 33 32 33 34 34 35 36 36 36 36 37 37 37 37 37 37 38 38 38 39 39 39 39 39 39 39 40 40 40 40
24 25 26 26 25 26 27 28 29 31 33 32 33 33 32 32 32 33 34 35 35 35 35 36 36 37 37 36 36 37 37 38 38 39 39 39 39 39 39 39 39 39 40 40
21 23 24 25 25 26 26 27 29 30 32 32 31 32 32 33 33 34 34 34 34 34 34 35 35 36 36 37 37 37 37 38 37 38 37 37 38 38 38 38 38 38 39 40
18 19 21 23 24 25 26 26 27 28 30 31 31 31 31 32 33 33 33 33 34 34 34 35 36 36 36 36 36 36 37 37 36 35 35 35 35 36 37 37 37 38 38 39
16 17 18 19 21 22 23 24 25 27 28 28 29 30 30 31 31 31 32 32 33 33 34 34 35 36 36 36 35 35 35 34 33 33 33 34 34 35 36 36 36 37 38 38
15 16 17 18 19 19 20 21 22 23 25 26 26 27 29 30 30 31 31 32 32 33 33 33 33 34 34 34 34 33 32 32 32 32 32 33 33 34 35 36 36 36 37 37
13 14 15 17 19 19 19 21 22 22 23 25 26 26 27 28 28 29 30 31 31 31 31 31 32 32 32 32 32 32 31 31 31 31 31 32 32 33 34 35 35 36 37 36
13 13 15 16 17 19 19 20 20 21 22 24 25 26 26 27 27 27 28 29 29 30 30 31 31 32 32 32 32 31 30 30 30 30 30 31 31 32 32 33 35 36 36 35
11 12 13 15 16 17 18 19 19 20 21 22 24 25 27 27 28 27 27 28 29 30 31 30 31 31 31 31 30 30 30 30 30 30 30 30 31 32 32 33 34 34 33 33
11 11 12 13 14 15 17 18 19 19 21 22 23 24 25 26 27 28 28 27 28 30 30 30 30 30 30 30 30 30 30 30 30 30 31 31 32 32 32 33 33 33 33 33
11 12 12 12 13 14 15 17 18 19 20 21 22 22 23 24 25 26 26 26 27 27 28 28 29 29 29 29 30 30 30 30 30 30 31 31 31 32 32 32 33 33 34 33
10 11 12 13 14 15 15 16 17 18 19 20 21 21 22 22 23 23 24 25 25 25 26 27 27 28 28 28 29 29 29 29 30 30 30 31 32 32 32 32 33 33 33 32
12 11 12 13 14 14 15 15 16 17 18 19 19 20 20 21 22 22 22 22 23 24 24 25 25 26 27 27 27 28 28 29 29 30 31 31 31 31 31 31 31 30 29 29
12 12 13 13 14 14 15 15 15 16 16 17 18 18 19 20 21 21 22 22 22 23 23 23 24 24 25 26 26 27 27 28 29 29 30 30 30 30 30 29 28 27 26 25
13 13 13 13 13 14 15 15 16 16 16 17 17 18 18 19 20 20 21 21 22 22 22 23 23 23 24 24 25 25 26 26 27 27 27 27 27 27 27 27 25 24 23 23
13 13 13 13 14 14 15 16 17 17 18 18 17 17 18 18 18 19 19 19 20 21 21 21 22 22 23 24 24 24 25 25 26 26 26 26 25 25 25 24 23 22 21 20
13 13 13 14 14 15 16 17 17 18 18 18 17 17 17 17 18 18 18 19 19 20 21 21 22 22 23 23 23 24 24 24 25 25 25 24 24 24 23 22 21 19 19 18
14 14 14 15 15 15 15 16 16 16 17 17 17 17 17 17 18 18 18 18 19 19 20 21 21 21 22 22 22 23 23 24 24 23 23 23 22 22 20 19 19 18 17 16
15 15 15 15 15 15 15 15 16 16 16 17 17 16 16 17 17 17 18 18 18 18 19 19 20 20 20 20 20 21 21 21 21 21 21 20 19 18 17 17 16 15 14 13
16 15 15 15 15 15 15 15 15 16 16 16 16 15 15 15 16 16 16 16 17 17 17 18 18 18 18 18 18 18 18 17 17 16 16 15 15 15 15 14 13 12 11 11
16 16 15 15 15 15 14 15 15 15 15 15 15 15 15 15 15 15 16 16 16 16 16 16 16 16 16 15 15 15 14 13 13 12 12 12 12 12 11 11 11 10 10 9
15 15 15 15 15 14 14 14 14 14 14 14 14 15 15 14 14 14 14 14 14 14 14 14 14 14 15 14 14 13 13 12 12 12 12 11 11 11 10 10 10 9 8 8

GEFSNGP_500_meanwind_234.txt.gz
Wind_Speed
21 22 24 26 28 29 30 29 30 30 31 31 32 32 33 34 36 36 37 38 39 39 39 40 41 41 41 41 41 41 41 41 40 40 40 40 40 40 40 40 41 41 41 41
22 22 24 25 27 29 31 31 30 29 29 30 32 32 33 34 35 35 36 36 37 38 38 38 39 39 40 40 40 40 40 40 40 39 39 39 39 39 40 40 40 41 40 40
21 21 23 26 27 28 29 30 29 28 27 29 31 32 33 33 34 35 35 36 36 37 37 38 38 38 39 39 39 40 39 39 39 39 39 39 39 39 39 39 39 40 40 40
21 21 21 23 25 26 27 28 29 28 28 27 29 30 31 33 34 34 35 35 35 36 37 38 38 38 38 38 39 39 39 39 39 39 39 39 38 38 38 38 38 39 39 39
20 22 21 21 22 23 24 25 27 27 27 27 27 28 29 31 33 34 35 35 35 36 36 37 37 38 38 37 38 38 38 38 37 38 38 38 38 38 38 38 38 38 39 39
18 20 21 21 21 22 23 24 25 26 26 26 26 26 27 30 32 33 34 35 35 35 36 36 36 37 37 37 36 36 37 37 37 37 37 37 38 38 38 38 38 39 39 39
17 18 19 21 21 22 23 23 24 25 25 25 25 26 26 28 30 31 32 33 34 35 35 35 36 36 36 36 36 36 36 37 37 36 36 36 37 37 37 38 38 38 39 39
15 16 17 19 20 21 21 21 22 23 24 24 24 24 25 26 28 30 31 32 33 33 33 33 34 35 35 35 35 36 36 36 36 36 36 36 36 36 37 37 37 37 38 38
14 15 16 17 19 20 21 21 22 22 23 23 23 23 23 24 26 28 29 31 31 32 32 33 32 33 34 34 34 34 35 35 36 36 35 35 35 35 36 36 36 37 37 37
14 14 15 16 17 19 20 21 21 22 23 24 24 24 24 24 25 26 28 29 30 31 32 32 32 33 33 33 33 33 34 34 35 35 35 35 35 35 35 35 35 35 36 36
14 15 16 16 17 18 18 20 21 21 22 23 23 23 23 24 24 25 26 27 29 30 31 31 32 32 32 32 32 32 32 33 33 33 33 33 33 33 33 34 34 35 35 35
13 14 15 15 16 16 17 18 19 19 20 22 23 22 23 24 25 25 26 27 28 29 30 30 30 30 31 31 31 31 32 32 32 31 31 31 31 32 32 33 34 34 34 34
11 13 14 14 15 16 16 17 17 18 19 20 21 21 22 24 25 25 25 25 26 26 27 28 29 29 29 30 31 31 32 31 31 30 30 30 30 31 31 32 33 33 34 33
10 10 11 12 14 14 15 16 17 17 17 18 19 19 21 22 23 24 24 25 25 25 25 26 28 29 29 29 30 30 30 30 30 30 30 29 30 30 31 31 31 32 32 32
9 10 10 10 12 12 14 15 16 16 17 17 18 18 19 21 22 23 24 24 24 24 25 26 27 27 28 28 29 29 29 29 29 29 29 29 29 29 30 30 31 31 31 31
9 9 10 10 10 11 12 14 15 16 17 17 18 18 19 20 21 23 23 24 24 24 25 26 27 27 28 28 28 28 28 28 28 28 28 29 29 29 29 29 30 30 30 30
9 9 10 10 10 11 11 12 13 15 16 17 18 18 19 19 20 21 22 23 23 24 25 25 25 26 27 28 28 28 28 28 28 28 28 29 29 29 29 29 29 29 29 29
9 10 10 11 11 11 11 11 12 13 15 16 17 17 18 19 19 20 20 21 22 23 23 23 23 24 25 26 27 28 28 28 28 28 28 28 28 28 29 29 28 28 28 28
9 10 11 11 12 12 12 12 12 12 13 15 16 17 17 18 18 18 19 19 20 21 21 22 22 23 24 25 25 26 26 26 26 26 26 26 27 28 28 28 27 27 26 26
11 11 11 12 12 13 13 13 13 13 14 14 15 16 16 17 18 18 18 18 19 20 21 21 22 23 24 24 25 25 25 25 25 25 25 25 26 27 26 26 25 24 24 23
11 11 11 11 12 12 12 13 13 14 14 14 14 15 15 16 17 17 18 19 19 20 20 21 21 21 22 22 24 24 24 24 25 25 25 25 25 25 24 24 23 22 22 21
12 12 12 12 13 13 12 12 13 14 14 15 15 15 15 16 17 17 18 18 18 19 19 20 20 20 20 21 22 22 22 23 24 24 24 24 23 23 22 21 21 20 19 19
13 13 13 13 13 13 13 13 13 13 14 15 15 15 15 16 16 17 17 17 17 17 18 18 18 19 19 19 19 19 20 21 21 21 22 21 21 20 20 19 19 18 18 17
13 13 14 14 13 13 13 13 13 14 14 14 14 15 15 15 15 15 16 15 15 16 16 17 17 17 17 17 17 18 18 18 18 18 19 19 19 18 18 17 17 16 15 14
13 14 14 14 14 13 13 13 13 13 13 13 14 14 14 14 14 14 15 15 15 15 15 15 15 15 15 15 15 15 16 16 16 16 16 16 16 16 16 15 15 14 14 13
13 13 14 14 14 14 14 13 13 12 12 12 13 13 13 13 13 14 14 14 14 14 14 14 14 14 15 14 14 14 14 15 15 15 14 14 14 14 14 14 14 14 13 13
13 13 14 14 14 14 14 13 13 12 12 12 13 13 13 12 12 12 12 12 13 13 13 13 14 14 14 14 13 13 13 13 13 13 13 13 13 13 14 14 14 13 13 13

GEFSNGP_500_meanwind_240.txt.gz
Wind_Speed
19 19 19 21 23 24 26 27 28 27 29 29 29 30 31 32 33 35 35 36 37 39 41 41 41 41 41 43 43 43 43 43 43 43 43 43 42 41 41 41 41 41 41 40
19 20 20 21 22 24 26 28 29 29 28 28 29 29 30 31 32 33 35 35 36 38 39 40 40 40 40 40 41 42 42 42 42 42 42 41 41 40 39 39 39 39 39 39
18 20 21 22 22 23 26 28 29 30 28 28 29 29 30 31 32 32 34 35 36 37 38 39 40 40 39 39 39 40 40 41 41 41 41 40 40 40 39 38 38 37 38 38
18 19 21 22 23 24 25 26 29 29 29 29 29 29 30 31 31 32 33 34 35 37 37 38 38 39 39 38 38 38 38 39 39 40 40 40 40 39 38 38 37 37 37 37
19 20 20 21 22 24 25 26 27 27 27 28 28 28 29 30 31 32 32 32 33 35 37 37 38 38 38 38 37 37 37 37 38 38 39 39 39 38 38 37 37 37 37 37
16 18 19 20 21 23 25 26 27 27 27 26 27 27 27 29 30 31 32 33 34 34 36 37 37 38 38 37 37 37 37 37 37 37 38 38 37 37 36 36 36 36 36 36
16 17 18 19 20 21 23 24 26 26 26 26 25 26 26 27 28 29 29 31 32 33 34 35 37 37 38 37 37 37 37 37 37 37 37 37 37 36 35 35 36 36 36 36
17 17 17 19 20 21 22 23 24 24 25 25 25 25 25 25 25 26 27 28 29 30 31 32 34 35 36 36 36 36 36 36 36 36 36 36 36 36 35 35 35 36 36 36
17 18 18 19 20 21 21 22 23 24 24 24 24 24 24 24 25 25 26 27 27 27 28 29 31 32 33 34 34 35 35 35 36 36 36 36 36 36 36 35 35 35 36 36
18 17 18 18 19 20 20 21 21 22 23 23 23 23 23 24 25 25 25 25 26 26 27 28 29 31 32 32 33 34 34 35 35 35 35 35 36 36 36 35 35 36 36 37
18 18 18 18 19 18 19 19 20 21 22 22 23 23 23 23 23 23 23 24 25 26 26 27 28 29 31 32 32 33 33 33 34 35 35 35 35 35 35 35 36 36 36 36
18 18 18 18 19 19 18 18 18 19 20 21 21 22 22 23 23 23 23 23 24 26 26 27 27 28 30 30 31 32 32 32 32 33 33 34 34 34 35 35 35 35 35 35
18 18 18 17 18 18 19 19 19 18 19 20 20 21 22 22 23 24 24 25 25 25 26 26 27 27 29 30 30 30 30 31 31 31 32 32 33 33 33 33 33 33 33 34
17 16 17 17 17 18 19 19 19 19 19 20 20 21 21 22 22 23 24 24 25 25 26 26 27 27 28 29 29 29 30 30 30 30 30 30 30 30 31 31 31 31 31 32
16 16 15 16 17 17 18 19 19 19 19 19 20 20 21 21 22 23 23 24 24 25 26 26 27 27 27 28 28 29 29 29 29 29 29 29 29 29 29 29 29 30 30 30
16 15 14 14 15 16 17 18 18 19 19 19 19 19 20 21 22 22 23 23 24 24 24 25 26 26 27 27 27 27 27 27 27 27 28 28 28 28 28 28 29 29 29 29
15 14 14 14 14 14 15 16 17 17 18 19 19 20 20 20 21 21 21 22 23 23 23 23 24 25 25 26 26 26 27 26 26 27 27 27 27 27 28 28 28 28 28 29
15 14 14 14 14 14 14 15 16 16 17 18 18 19 19 19 20 20 20 21 21 21 22 22 23 24 25 25 26 26 27 27 27 27 27 27 27 28 27 27 27 27 27 27
16 15 15 15 14 14 13 14 15 15 16 18 18 18 18 19 19 19 19 19 20 21 21 21 22 22 24 25 25 25 26 26 26 27 27 27 27 27 26 26 26 26 25 25
16 16 16 15 15 15 14 14 14 15 15 16 17 17 17 18 18 18 18 19 19 19 20 20 21 21 22 23 24 25 25 25 26 26 26 25 25 25 25 25 24 24 24 24
16 16 16 15 15 15 14 14 15 15 15 15 16 16 16 17 17 17 18 18 18 18 18 19 19 20 21 21 22 23 24 24 25 24 24 24 24 23 23 23 23 23 23 22
16 15 15 15 15 15 14 14 14 14 15 15 15 15 15 15 16 16 16 16 16 16 17 17 17 18 19 20 21 22 23 23 23 23 23 23 22 22 22 21 21 21 21 20
16 15 15 15 15 14 14 14 14 14 14 14 14 14 15 15 15 15 15 15 14 14 14 15 16 16 17 18 19 20 21 21 22 22 22 22 21 20 20 19 19 19 18 18
16 16 16 15 15 15 14 14 14 14 14 14 14 14 14 14 14 14 15 14 14 13 13 13 14 15 15 16 17 18 18 19 19 19 19 19 19 19 19 18 18 17 16 16
17 17 17 17 16 15 15 15 15 14 13 13 14 13 13 14 14 14 14 13 13 13 13 13 13 13 14 14 15 16 16 16 17 17 17 17 17 18 18 17 17 16 16 15
18 18 17 17 16 15 14 14 14 14 13 13 13 13 13 13 13 13 13 13 12 12 12 12 12 12 12 13 13 14 14 15 15 15 15 16 16 16 16 16 16 15 15 14
18 18 17 16 15 14 14 13 13 13 13 13 13 12 12 12 12 12 12 12 11 11 11 11 11 11 11 11 12 12 12 12 13 13 13 14 14 14 14 14 14 13 13 13

GEFSNGP_500_meanwind_246.txt.gz
Wind_Speed
15 16 17 17 19 21 23 24 23 22 22 22 23 25 26 26 27 28 30 32 34 35 37 38 41 43 44 45 45 45 45 44 44 43 43 43 44 44 44 43 42 42 42 41
14 15 16 17 18 20 22 24 24 23 22 22 23 25 26 27 27 27 29 31 33 34 35 36 38 40 42 43 44 44 45 44 44 43 43 43 43 43 43 43 42 41 40 41
14 15 16 16 17 19 21 23 24 24 25 24 24 24 25 26 27 29 29 30 32 33 35 36 37 38 40 41 42 43 43 43 43 43 42 42 42 43 43 42 41 41 40 40
15 15 16 17 17 18 20 21 22 23 24 25 24 24 26 27 27 27 28 30 31 31 33 34 36 37 38 39 40 41 42 43 43 42 42 42 42 42 42 41 41 40 39 39
15 15 15 16 17 18 19 20 21 22 23 24 25 25 26 28 28 28 28 29 30 31 32 33 34 35 37 37 38 39 39 40 41 41 41 41 40 41 41 40 40 39 38 38
16 16 15 15 16 17 19 20 21 22 23 23 24 24 25 27 28 28 28 28 29 30 31 32 33 35 35 37 38 38 39 39 39 39 39 39 39 39 39 39 39 38 38 37
16 17 16 16 17 17 18 19 21 21 22 22 22 22 23 25 27 28 28 28 28 29 30 31 33 34 34 35 37 38 38 38 38 38 38 39 39 38 38 38 38 38 37 37
16 17 17 17 17 18 19 19 20 20 21 21 21 22 22 23 25 27 27 27 27 28 29 31 33 33 33 34 35 36 37 37 37 37 38 38 38 38 38 37 37 37 37 37
16 17 17 17 18 18 19 19 19 20 21 21 21 21 22 22 23 24 26 26 26 27 28 29 31 33 33 33 33 34 35 36 36 36 36 36 36 37 37 37 37 37 36 36
16 17 18 17 18 18 19 19 20 20 20 21 21 21 21 22 23 23 24 25 26 26 26 27 28 29 31 32 33 33 33 34 35 35 35 35 35 36 36 36 36 36 36 36
16 17 18 18 18 18 18 18 19 20 20 20 20 20 20 19 20 21 22 24 24 24 26 26 26 26 28 30 31 31 32 32 33 33 34 34 34 35 35 35 35 35 35 35
16 17 17 18 18 18 18 18 19 19 20 20 21 20 20 19 19 20 22 23 23 23 24 25 26 26 26 28 30 30 30 31 31 32 33 33 33 33 34 34 34 34 34 35
16 16 17 18 18 19 19 18 19 19 19 20 20 20 20 20 20 20 21 22 22 22 23 24 24 25 25 26 27 28 29 30 31 32 32 33 32 32 32 33 33 33 33 34
16 16 16 17 18 19 19 19 18 18 18 18 19 19 19 19 19 20 20 21 21 22 23 23 24 25 25 26 26 27 28 30 31 32 32 31 31 32 32 32 31 32 32 32
16 16 16 17 18 18 19 19 19 18 18 18 18 18 19 19 19 19 19 20 20 20 21 22 23 24 24 25 26 27 28 28 30 31 31 31 31 31 30 30 30 30 30 30
16 16 16 17 17 17 18 18 18 18 18 18 18 18 19 20 20 20 20 20 20 20 21 22 23 23 25 25 26 27 27 28 29 29 30 30 29 29 29 29 29 29 29 29
17 17 17 17 17 17 17 16 16 17 16 17 18 18 19 20 20 20 20 20 20 19 19 20 21 22 23 24 26 26 27 27 28 28 28 28 28 28 28 28 28 28 28 28
17 17 17 17 17 17 17 16 16 16 16 16 17 18 18 19 19 19 19 19 19 19 19 20 20 21 21 22 24 25 26 26 27 27 26 27 27 28 28 28 27 26 26 26
17 18 18 18 17 17 17 17 16 16 16 16 16 16 17 18 18 18 18 18 18 19 19 19 19 19 20 21 22 22 23 24 24 25 26 26 26 27 27 26 26 25 25 25
17 18 18 18 18 17 17 17 17 16 16 16 16 16 16 16 17 17 17 17 17 18 18 18 18 18 19 19 20 20 21 22 22 23 24 25 25 25 25 25 24 24 24 24
17 17 17 17 17 17 17 17 16 16 15 15 15 16 16 16 16 17 17 17 17 17 17 18 18 18 17 18 18 18 19 20 21 21 22 23 24 24 24 24 23 23 23 22
18 18 17 17 17 16 16 16 16 15 15 15 15 15 16 16 16 16 16 16 16 16 16 16 16 16 16 16 16 16 17 18 19 20 20 21 22 22 22 22 22 21 21 21
18 18 18 17 16 16 16 15 15 15 14 14 14 14 14 15 15 14 14 15 15 15 15 15 15 15 14 14 14 15 15 16 17 18 18 18 19 20 20 20 20 19 19 19
19 19 18 17 16 16 15 15 14 14 13 13 12 12 12 12 13 13 13 14 13 13 14 14 14 14 14 14 14 14 14 14 15 15 15 15 16 16 16 17 17 17 17 17
19 18 17 16 16 15 15 15 14 13 12 12 11 11 11 11 12 12 12 12 12 12 12 13 13 13 13 13 13 13 13 13 13 13 13 13 13 13 14 15 15 16 16 16
18 17 16 16 15 15 14 14 13 12 12 11 11 11 11 11 12 12 12 12 12 12 12 12 13 13 13 12 12 12 12 12 12 12 13 13 13 12 12 13 13 13 13 13
17 16 15 15 14 14 14 13 12 12 12 11 11 11 11 11 11 11 11 11 11 11 11 11 12 12 11 11 12 12 12 12 12 12 12 12 12 12 12 12 12 12 12 12